Time,TemperatureF,DewpointF,PressureIn,WindDirection,WindDirectionDegrees,WindSpeedMPH,WindSpeedGustMPH,Humidity,HourlyPrecipIn,Conditions,Clouds,dailyrainin,SoftwareType,DateUTC
2013-08-14 00:00:00,56.8,36.8,29.26,ENE,68,0.0,0.0,47,0.00,CLR,,0.00,WeatherDisplay:10.37,2013-08-14 05:00:00,
2013-08-14 00:03:00,56.8,36.8,29.26,ENE,68,0.0,0.0,47,0.00,CLR,,0.00,WeatherDisplay:10.37,2013-08-14 05:03:00,
2013-08-14 00:04:00,56.8,37.3,29.26,ENE,68,0.0,0.0,48,0.00,CLR,,0.00,WeatherDisplay:10.37,2013-08-14 05:04:00,
2013-08-14 00:06:00,56.8,37.3,29.26,ENE,68,0.0,0.0,48,0.00,CLR,,0.00,WeatherDisplay:10.37,2013-08-14 05:06:00,
2013-08-14 00:09:00,57.0,37.5,29.26,ENE,68,0.0,0.0,48,0.00,CLR,,0.00,WeatherDisplay:10.37,2013-08-14 05:09:00,
2013-08-14 00:11:00,56.8,37.3,29.26,ENE,68,0.0,0.0,48,0.00,CLR,,0.00,WeatherDisplay:10.37,2013-08-14 05:11:00,
2013-08-14 00:13:00,56.8,36.8,29.26,ENE,68,0.0,0.0,47,0.00,CLR,,0.00,WeatherDisplay:10.37,2013-08-14 05:13:00,
2013-08-14 00:14:00,56.8,37.3,29.26,ENE,68,0.0,0.0,48,0.00,CLR,,0.00,WeatherDisplay:10.37,2013-08-14 05:14:00,
2013-08-14 00:16:00,56.7,37.2,29.26,ENE,68,0.0,0.0,48,0.00,CLR,,0.00,WeatherDisplay:10.37,2013-08-14 05:16:00,
2013-08-14 00:17:00,56.7,37.2,29.26,ENE,68,0.0,0.0,48,0.00,CLR,,0.00,WeatherDisplay:10.37,2013-08-14 05:17:00,
2013-08-14 00:18:00,56.7,37.2,29.26,ENE,68,0.0,0.0,48,0.00,CLR,,0.00,WeatherDisplay:10.37,2013-08-14 05:18:00,
2013-08-14 00:19:00,56.7,37.2,29.26,ENE,68,0.0,0.0,48,0.00,CLR,,0.00,WeatherDisplay:10.37,2013-08-14 05:19:00,
2013-08-14 00:20:00,56.7,37.2,29.26,ENE,68,0.0,0.0,48,0.00,CLR,,0.00,WeatherDisplay:10.37,2013-08-14 05:20:00,
2013-08-14 00:22:00,56.7,37.2,29.26,ENE,68,0.0,0.0,48,0.00,CLR,,0.00,WeatherDisplay:10.37,2013-08-14 05:22:00,
2013-08-14 00:24:00,56.5,37.0,29.26,ENE,68,0.0,0.0,48,0.00,CLR,,0.00,WeatherDisplay:10.37,2013-08-14 05:24:00,
2013-08-14 00:25:00,56.5,37.0,29.26,ENE,68,0.0,0.0,48,0.00,CLR,,0.00,WeatherDisplay:10.37,2013-08-14 05:25:00,
2013-08-14 00:29:00,56.5,37.0,29.26,ENE,68,0.0,0.0,48,0.00,CLR,,0.00,WeatherDisplay:10.37,2013-08-14 05:29:00,
2013-08-14 00:31:00,56.5,37.5,29.26,ENE,68,0.0,0.0,49,0.00,CLR,,0.00,WeatherDisplay:10.37,2013-08-14 05:31:00,
2013-08-14 00:32:00,56.3,37.4,29.26,ENE,68,0.0,0.0,49,0.00,CLR,,0.00,WeatherDisplay:10.37,2013-08-14 05:32:00,
2013-08-14 00:33:00,56.3,37.4,29.26,ENE,68,0.0,0.0,49,0.00,CLR,,0.00,WeatherDisplay:10.37,2013-08-14 05:33:00,
2013-08-14 00:34:00,56.3,37.4,29.26,ENE,68,0.0,0.0,49,0.00,CLR,,0.00,WeatherDisplay:10.37,2013-08-14 05:34:00,
2013-08-14 00:37:00,56.3,37.4,29.26,ENE,68,0.0,0.0,49,0.00,CLR,,0.00,WeatherDisplay:10.37,2013-08-14 05:37:00,
2013-08-14 00:38:00,56.3,37.4,29.26,ENE,68,0.0,0.0,49,0.00,CLR,,0.00,WeatherDisplay:10.37,2013-08-14 05:38:00,
2013-08-14 00:40:00,56.3,37.4,29.26,ENE,68,0.0,0.0,49,0.00,CLR,,0.00,WeatherDisplay:10.37,2013-08-14 05:40:00,
2013-08-14 00:41:00,56.1,37.2,29.29,ENE,68,0.0,0.0,49,0.00,CLR,,0.00,WeatherDisplay:10.37,2013-08-14 05:41:00,
2013-08-14 00:42:00,56.1,37.2,29.29,ENE,68,0.0,0.0,49,0.00,CLR,,0.00,WeatherDisplay:10.37,2013-08-14 05:42:00,
2013-08-14 00:43:00,56.1,37.2,29.29,ENE,68,0.0,0.0,49,0.00,CLR,,0.00,WeatherDisplay:10.37,2013-08-14 05:43:00,
2013-08-14 00:46:00,56.1,37.2,29.29,ENE,68,0.0,0.0,49,0.00,CLR,,0.00,WeatherDisplay:10.37,2013-08-14 05:46:00,
2013-08-14 00:48:00,56.1,37.2,29.29,ENE,68,0.0,0.0,49,0.00,CLR,,0.00,WeatherDisplay:10.37,2013-08-14 05:48:00,
2013-08-14 00:51:00,55.9,37.0,29.29,ENE,68,0.0,0.0,49,0.00,CLR,,0.00,WeatherDisplay:10.37,2013-08-14 05:51:00,
2013-08-14 00:54:00,55.9,37.6,29.29,ENE,68,0.0,0.0,50,0.00,CLR,,0.00,WeatherDisplay:10.37,2013-08-14 05:54:00,
2013-08-14 00:55:00,55.9,37.0,29.29,ENE,68,0.0,0.0,49,0.00,CLR,,0.00,WeatherDisplay:10.37,2013-08-14 05:55:00,
2013-08-14 00:56:00,55.8,36.9,29.29,ENE,68,0.0,0.0,49,0.00,CLR,,0.00,WeatherDisplay:10.37,2013-08-14 05:56:00,
2013-08-14 00:57:00,55.8,36.9,29.29,ENE,68,0.0,0.0,49,0.00,CLR,,0.00,WeatherDisplay:10.37,2013-08-14 05:57:00,
2013-08-14 00:59:00,55.8,37.4,29.29,ENE,68,0.0,0.0,50,0.00,CLR,,0.00,WeatherDisplay:10.37,2013-08-14 05:59:00,
2013-08-14 01:00:00,55.8,37.4,29.29,ENE,68,0.0,0.0,50,0.00,CLR,,0.00,WeatherDisplay:10.37,2013-08-14 06:00:00,
2013-08-14 01:02:00,55.8,37.9,29.29,ENE,68,0.0,0.0,51,0.00,CLR,,0.00,WeatherDisplay:10.37,2013-08-14 06:02:00,
2013-08-14 01:05:00,55.8,37.4,29.29,ENE,68,0.0,0.0,50,0.00,CLR,,0.00,WeatherDisplay:10.37,2013-08-14 06:05:00,
2013-08-14 01:07:00,55.6,37.2,29.29,ENE,68,0.0,0.0,50,0.00,CLR,,0.00,WeatherDisplay:10.37,2013-08-14 06:07:00,
2013-08-14 01:09:00,55.6,37.7,29.29,ENE,68,0.0,0.0,51,0.00,CLR,,0.00,WeatherDisplay:10.37,2013-08-14 06:09:00,
2013-08-14 01:10:00,55.6,37.7,29.29,ENE,68,0.0,0.0,51,0.00,CLR,,0.00,WeatherDisplay:10.37,2013-08-14 06:10:00,
2013-08-14 01:12:00,55.6,37.7,29.29,ENE,68,0.0,0.0,51,0.00,CLR,,0.00,WeatherDisplay:10.37,2013-08-14 06:12:00,
2013-08-14 01:13:00,55.6,37.7,29.29,ENE,68,0.0,0.0,51,0.00,CLR,,0.00,WeatherDisplay:10.37,2013-08-14 06:13:00,
2013-08-14 01:14:00,55.6,37.7,29.29,ENE,68,0.0,0.0,51,0.00,CLR,,0.00,WeatherDisplay:10.37,2013-08-14 06:14:00,
2013-08-14 01:17:00,55.6,38.7,29.29,ENE,68,0.0,0.0,53,0.00,CLR,,0.00,WeatherDisplay:10.37,2013-08-14 06:17:00,
2013-08-14 01:19:00,55.4,37.6,29.29,ENE,68,0.0,0.0,51,0.00,CLR,,0.00,WeatherDisplay:10.37,2013-08-14 06:19:00,
2013-08-14 01:20:00,55.4,37.6,29.29,ENE,68,0.0,0.0,51,0.00,CLR,,0.00,WeatherDisplay:10.37,2013-08-14 06:20:00,
2013-08-14 01:22:00,55.4,37.6,29.29,ENE,68,0.0,0.0,51,0.00,CLR,,0.00,WeatherDisplay:10.37,2013-08-14 06:22:00,
2013-08-14 01:24:00,55.4,37.5,29.29,ENE,68,0.0,0.0,51,0.00,CLR,,0.00,WeatherDisplay:10.37,2013-08-14 06:24:00,
2013-08-14 01:25:00,55.2,37.4,29.29,ENE,68,0.0,0.0,51,0.00,CLR,,0.00,WeatherDisplay:10.37,2013-08-14 06:25:00,
2013-08-14 01:26:00,55.2,37.4,29.29,ENE,68,0.0,0.0,51,0.00,CLR,,0.00,WeatherDisplay:10.37,2013-08-14 06:26:00,
2013-08-14 01:28:00,55.2,37.9,29.26,ENE,68,0.0,0.0,52,0.00,CLR,,0.00,WeatherDisplay:10.37,2013-08-14 06:28:00,
2013-08-14 01:31:00,55.2,38.4,29.26,ENE,68,0.0,0.0,53,0.00,CLR,,0.00,WeatherDisplay:10.37,2013-08-14 06:31:00,
2013-08-14 01:32:00,55.2,38.4,29.26,ENE,68,0.0,0.0,53,0.00,CLR,,0.00,WeatherDisplay:10.37,2013-08-14 06:32:00,
2013-08-14 01:34:00,55.0,38.2,29.26,ENE,68,0.0,0.0,53,0.00,CLR,,0.00,WeatherDisplay:10.37,2013-08-14 06:34:00,
2013-08-14 01:36:00,55.0,38.2,29.26,ENE,68,0.0,0.0,53,0.00,CLR,,0.00,WeatherDisplay:10.37,2013-08-14 06:36:00,
2013-08-14 01:37:00,55.0,38.2,29.26,ENE,68,0.0,0.0,53,0.00,CLR,,0.00,WeatherDisplay:10.37,2013-08-14 06:37:00,
2013-08-14 01:39:00,55.0,38.2,29.26,ENE,68,0.0,0.0,53,0.00,CLR,,0.00,WeatherDisplay:10.37,2013-08-14 06:39:00,
2013-08-14 01:41:00,55.0,38.2,29.26,ENE,68,0.0,0.0,53,0.00,CLR,,0.00,WeatherDisplay:10.37,2013-08-14 06:41:00,
2013-08-14 01:43:00,55.0,38.2,29.29,ENE,68,0.0,0.0,53,0.00,CLR,,0.00,WeatherDisplay:10.37,2013-08-14 06:43:00,
2013-08-14 01:44:00,54.9,38.0,29.29,ENE,68,0.0,0.0,53,0.00,CLR,,0.00,WeatherDisplay:10.37,2013-08-14 06:44:00,
2013-08-14 01:45:00,54.9,38.0,29.29,ENE,68,0.0,0.0,53,0.00,CLR,,0.00,WeatherDisplay:10.37,2013-08-14 06:45:00,
2013-08-14 01:47:00,54.9,38.0,29.29,ENE,68,0.0,0.0,53,0.00,CLR,,0.00,WeatherDisplay:10.37,2013-08-14 06:47:00,
2013-08-14 01:48:00,54.9,38.0,29.29,ENE,68,0.0,0.0,53,0.00,CLR,,0.00,WeatherDisplay:10.37,2013-08-14 06:48:00,
2013-08-14 01:49:00,54.9,38.0,29.29,ENE,68,0.0,0.0,53,0.00,CLR,,0.00,WeatherDisplay:10.37,2013-08-14 06:49:00,
2013-08-14 01:50:00,54.9,38.0,29.29,ENE,68,0.0,0.0,53,0.00,CLR,,0.00,WeatherDisplay:10.37,2013-08-14 06:50:00,
2013-08-14 01:53:00,54.7,37.9,29.29,ENE,68,0.0,0.0,53,0.00,CLR,,0.00,WeatherDisplay:10.37,2013-08-14 06:53:00,
2013-08-14 01:54:00,54.7,37.9,29.29,ENE,68,0.0,0.0,53,0.00,CLR,,0.00,WeatherDisplay:10.37,2013-08-14 06:54:00,
2013-08-14 01:55:00,54.7,37.9,29.29,ENE,68,0.0,0.0,53,0.00,CLR,,0.00,WeatherDisplay:10.37,2013-08-14 06:55:00,
2013-08-14 01:56:00,54.7,37.9,29.29,ENE,68,0.0,0.0,53,0.00,CLR,,0.00,WeatherDisplay:10.37,2013-08-14 06:56:00,
2013-08-14 01:57:00,54.7,37.9,29.29,ENE,68,0.0,0.0,53,0.00,CLR,,0.00,WeatherDisplay:10.37,2013-08-14 06:57:00,
2013-08-14 01:58:00,54.5,37.7,29.29,ENE,68,0.0,0.0,53,0.00,CLR,,0.00,WeatherDisplay:10.37,2013-08-14 06:58:00,
2013-08-14 02:00:00,54.5,37.7,29.29,ENE,68,0.0,0.0,53,0.00,CLR,,0.00,WeatherDisplay:10.37,2013-08-14 07:00:00,
2013-08-14 02:02:00,54.5,37.7,29.29,ENE,68,0.0,0.0,53,0.00,CLR,,0.00,WeatherDisplay:10.37,2013-08-14 07:02:00,
2013-08-14 02:03:00,54.5,37.7,29.29,ENE,68,0.0,0.0,53,0.00,CLR,,0.00,WeatherDisplay:10.37,2013-08-14 07:03:00,
2013-08-14 02:04:00,54.5,38.2,29.29,ENE,68,0.0,0.0,54,0.00,CLR,,0.00,WeatherDisplay:10.37,2013-08-14 07:04:00,
2013-08-14 02:07:00,54.5,38.2,29.29,ENE,68,0.0,0.0,54,0.00,CLR,,0.00,WeatherDisplay:10.37,2013-08-14 07:07:00,
2013-08-14 02:08:00,54.5,38.2,29.29,ENE,68,0.0,0.0,54,0.00,CLR,,0.00,WeatherDisplay:10.37,2013-08-14 07:08:00,
2013-08-14 02:09:00,54.5,38.2,29.29,ENE,68,0.0,0.0,54,0.00,CLR,,0.00,WeatherDisplay:10.37,2013-08-14 07:09:00,
2013-08-14 02:11:00,54.5,38.2,29.29,ENE,68,0.0,0.0,54,0.00,CLR,,0.00,WeatherDisplay:10.37,2013-08-14 07:11:00,
2013-08-14 02:12:00,54.5,38.2,29.26,ENE,68,0.0,0.0,54,0.00,CLR,,0.00,WeatherDisplay:10.37,2013-08-14 07:12:00,
2013-08-14 02:13:00,54.5,38.2,29.26,ENE,68,0.0,0.0,54,0.00,CLR,,0.00,WeatherDisplay:10.37,2013-08-14 07:13:00,
2013-08-14 02:15:00,54.3,38.0,29.26,ENE,68,0.0,0.0,54,0.00,CLR,,0.00,WeatherDisplay:10.37,2013-08-14 07:15:00,
2013-08-14 02:17:00,54.3,38.5,29.26,ENE,68,0.0,0.0,55,0.00,CLR,,0.00,WeatherDisplay:10.37,2013-08-14 07:17:00,
2013-08-14 02:18:00,54.3,38.5,29.26,ENE,68,0.0,0.0,55,0.00,CLR,,0.00,WeatherDisplay:10.37,2013-08-14 07:18:00,
2013-08-14 02:19:00,54.3,38.5,29.26,ENE,68,0.0,0.0,55,0.00,CLR,,0.00,WeatherDisplay:10.37,2013-08-14 07:19:00,
2013-08-14 02:23:00,54.5,39.1,29.26,ENE,68,0.0,0.0,56,0.00,CLR,,0.00,WeatherDisplay:10.37,2013-08-14 07:23:00,
2013-08-14 02:24:00,54.3,38.5,29.26,ENE,68,0.0,0.0,55,0.00,CLR,,0.00,WeatherDisplay:10.37,2013-08-14 07:24:00,
2013-08-14 02:28:00,54.3,38.5,29.26,ENE,68,0.0,0.0,55,0.00,CLR,,0.00,WeatherDisplay:10.37,2013-08-14 07:28:00,
2013-08-14 02:29:00,54.3,38.5,29.26,ENE,68,0.0,0.0,55,0.00,CLR,,0.00,WeatherDisplay:10.37,2013-08-14 07:29:00,
2013-08-14 02:33:00,54.3,38.9,29.26,ENE,68,0.0,0.0,56,0.00,CLR,,0.00,WeatherDisplay:10.37,2013-08-14 07:33:00,
2013-08-14 02:34:00,54.3,38.9,29.26,ENE,68,0.0,0.0,56,0.00,CLR,,0.00,WeatherDisplay:10.37,2013-08-14 07:34:00,
2013-08-14 02:35:00,54.3,38.9,29.26,ENE,68,0.0,0.0,56,0.00,CLR,,0.00,WeatherDisplay:10.37,2013-08-14 07:35:00,
2013-08-14 02:37:00,54.3,38.9,29.26,ENE,68,0.0,0.0,56,0.00,CLR,,0.00,WeatherDisplay:10.37,2013-08-14 07:37:00,
2013-08-14 02:38:00,54.3,38.9,29.26,ENE,68,0.0,0.0,56,0.00,CLR,,0.00,WeatherDisplay:10.37,2013-08-14 07:38:00,
2013-08-14 02:39:00,54.1,38.3,29.26,ENE,68,0.0,0.0,55,0.00,CLR,,0.00,WeatherDisplay:10.37,2013-08-14 07:39:00,
2013-08-14 02:43:00,54.1,38.3,29.26,ENE,68,0.0,0.0,55,0.00,CLR,,0.00,WeatherDisplay:10.37,2013-08-14 07:43:00,
2013-08-14 02:44:00,54.1,38.3,29.26,ENE,68,0.0,0.0,55,0.00,CLR,,0.00,WeatherDisplay:10.37,2013-08-14 07:44:00,
2013-08-14 02:45:00,54.1,38.3,29.26,ENE,68,0.0,0.0,55,0.00,CLR,,0.00,WeatherDisplay:10.37,2013-08-14 07:45:00,
2013-08-14 02:46:00,54.0,38.1,29.26,ENE,68,0.0,0.0,55,0.00,CLR,,0.00,WeatherDisplay:10.37,2013-08-14 07:46:00,
2013-08-14 02:49:00,54.0,38.1,29.26,ENE,68,0.0,0.0,55,0.00,CLR,,0.00,WeatherDisplay:10.37,2013-08-14 07:49:00,
2013-08-14 02:50:00,54.0,38.1,29.26,ENE,68,0.0,0.0,55,0.00,CLR,,0.00,WeatherDisplay:10.37,2013-08-14 07:50:00,
2013-08-14 02:51:00,54.0,38.1,29.26,ENE,68,0.0,0.0,55,0.00,CLR,,0.00,WeatherDisplay:10.37,2013-08-14 07:51:00,
2013-08-14 02:54:00,54.0,38.1,29.26,ENE,68,0.0,0.0,55,0.00,CLR,,0.00,WeatherDisplay:10.37,2013-08-14 07:54:00,
2013-08-14 02:56:00,54.0,38.1,29.26,ENE,68,0.0,0.0,55,0.00,CLR,,0.00,WeatherDisplay:10.37,2013-08-14 07:56:00,
2013-08-14 02:58:00,54.0,38.6,29.26,ENE,68,0.0,0.0,56,0.00,CLR,,0.00,WeatherDisplay:10.37,2013-08-14 07:58:00,
2013-08-14 02:59:00,53.8,38.4,29.26,ENE,68,0.0,0.0,56,0.00,CLR,,0.00,WeatherDisplay:10.37,2013-08-14 07:59:00,
2013-08-14 03:00:00,53.8,38.4,29.26,ENE,68,0.0,0.0,56,0.00,CLR,,0.00,WeatherDisplay:10.37,2013-08-14 08:00:00,
2013-08-14 03:01:00,53.8,38.4,29.26,ENE,68,0.0,0.0,56,0.00,CLR,,0.00,WeatherDisplay:10.37,2013-08-14 08:01:00,
2013-08-14 03:04:00,53.8,38.4,29.26,ENE,68,0.0,0.0,56,0.00,CLR,,0.00,WeatherDisplay:10.37,2013-08-14 08:04:00,
2013-08-14 03:05:00,53.8,38.4,29.26,ENE,68,0.0,0.0,56,0.00,CLR,,0.00,WeatherDisplay:10.37,2013-08-14 08:05:00,
2013-08-14 03:06:00,53.8,38.0,29.26,ENE,68,0.0,0.0,55,0.00,CLR,,0.00,WeatherDisplay:10.37,2013-08-14 08:06:00,
2013-08-14 03:07:00,53.8,38.0,29.26,ENE,68,0.0,0.0,55,0.00,CLR,,0.00,WeatherDisplay:10.37,2013-08-14 08:07:00,
2013-08-14 03:09:00,53.8,38.0,29.26,ENE,68,0.0,0.0,55,0.00,CLR,,0.00,WeatherDisplay:10.37,2013-08-14 08:09:00,
2013-08-14 03:10:00,53.8,38.4,29.26,ENE,68,0.0,0.0,56,0.00,CLR,,0.00,WeatherDisplay:10.37,2013-08-14 08:10:00,
2013-08-14 03:12:00,53.6,38.3,29.26,ENE,68,0.0,0.0,56,0.00,CLR,,0.00,WeatherDisplay:10.37,2013-08-14 08:12:00,
2013-08-14 03:14:00,53.6,38.3,29.26,ENE,68,0.0,0.0,56,0.00,CLR,,0.00,WeatherDisplay:10.37,2013-08-14 08:14:00,
2013-08-14 03:15:00,53.6,38.3,29.26,ENE,68,0.0,0.0,56,0.00,CLR,,0.00,WeatherDisplay:10.37,2013-08-14 08:15:00,
2013-08-14 03:16:00,53.6,38.3,29.26,ENE,68,0.0,0.0,56,0.00,CLR,,0.00,WeatherDisplay:10.37,2013-08-14 08:16:00,
2013-08-14 03:19:00,53.6,38.3,29.26,ENE,68,0.0,0.0,56,0.00,CLR,,0.00,WeatherDisplay:10.37,2013-08-14 08:19:00,
2013-08-14 03:21:00,53.6,38.3,29.26,ENE,68,0.0,0.0,56,0.00,CLR,,0.00,WeatherDisplay:10.37,2013-08-14 08:21:00,
2013-08-14 03:22:00,53.6,38.3,29.26,ENE,68,0.0,0.0,56,0.00,CLR,,0.00,WeatherDisplay:10.37,2013-08-14 08:22:00,
2013-08-14 03:24:00,53.8,38.4,29.26,ENE,68,0.0,0.0,56,0.00,CLR,,0.00,WeatherDisplay:10.37,2013-08-14 08:24:00,
2013-08-14 03:27:00,53.6,38.3,29.26,ENE,68,0.0,0.0,56,0.00,CLR,,0.00,WeatherDisplay:10.37,2013-08-14 08:27:00,
2013-08-14 03:29:00,53.6,38.3,29.26,ENE,68,0.0,0.0,56,0.00,CLR,,0.00,WeatherDisplay:10.37,2013-08-14 08:29:00,
2013-08-14 03:30:00,53.6,38.3,29.26,ENE,68,0.0,0.0,56,0.00,CLR,,0.00,WeatherDisplay:10.37,2013-08-14 08:30:00,
2013-08-14 03:32:00,53.6,38.3,29.26,ENE,68,0.0,0.0,56,0.00,CLR,,0.00,WeatherDisplay:10.37,2013-08-14 08:32:00,
2013-08-14 03:34:00,53.4,38.1,29.26,ENE,68,0.0,0.0,56,0.00,CLR,,0.00,WeatherDisplay:10.37,2013-08-14 08:34:00,
2013-08-14 03:35:00,53.6,38.3,29.26,ENE,68,0.0,0.0,56,0.00,CLR,,0.00,WeatherDisplay:10.37,2013-08-14 08:35:00,
2013-08-14 03:38:00,53.6,38.7,29.26,ENE,68,0.0,0.0,57,0.00,CLR,,0.00,WeatherDisplay:10.37,2013-08-14 08:38:00,
2013-08-14 03:40:00,53.6,38.3,29.26,ENE,68,0.0,0.0,56,0.00,CLR,,0.00,WeatherDisplay:10.37,2013-08-14 08:40:00,
2013-08-14 03:42:00,53.4,38.1,29.29,ENE,68,0.0,0.0,56,0.00,CLR,,0.00,WeatherDisplay:10.37,2013-08-14 08:42:00,
2013-08-14 03:44:00,53.4,38.1,29.29,ENE,68,0.0,0.0,56,0.00,CLR,,0.00,WeatherDisplay:10.37,2013-08-14 08:44:00,
2013-08-14 03:45:00,53.4,38.1,29.29,ENE,68,0.0,0.0,56,0.00,CLR,,0.00,WeatherDisplay:10.37,2013-08-14 08:45:00,
2013-08-14 03:47:00,53.4,38.6,29.29,ENE,68,0.0,0.0,57,0.00,CLR,,0.00,WeatherDisplay:10.37,2013-08-14 08:47:00,
2013-08-14 03:48:00,53.4,38.6,29.29,ENE,68,0.0,0.0,57,0.00,CLR,,0.00,WeatherDisplay:10.37,2013-08-14 08:48:00,
2013-08-14 03:49:00,53.4,38.6,29.29,ENE,68,0.0,0.0,57,0.00,CLR,,0.00,WeatherDisplay:10.37,2013-08-14 08:49:00,
2013-08-14 03:51:00,53.2,38.8,29.29,NNW,338,0.0,0.0,58,0.00,CLR,,0.00,WeatherDisplay:10.37,2013-08-14 08:51:00,
2013-08-14 03:52:00,53.2,38.8,29.29,NNW,338,0.0,0.0,58,0.00,CLR,,0.00,WeatherDisplay:10.37,2013-08-14 08:52:00,
2013-08-14 03:54:00,53.2,38.8,29.29,NNW,338,0.0,0.0,58,0.00,CLR,,0.00,WeatherDisplay:10.37,2013-08-14 08:54:00,
2013-08-14 03:55:00,53.1,38.7,29.29,NNW,338,0.0,0.0,58,0.00,CLR,,0.00,WeatherDisplay:10.37,2013-08-14 08:55:00,
2013-08-14 03:57:00,53.1,38.7,29.29,NNW,338,0.0,0.0,58,0.00,CLR,,0.00,WeatherDisplay:10.37,2013-08-14 08:57:00,
2013-08-14 03:59:00,53.2,38.8,29.29,NNW,338,0.0,0.0,58,0.00,CLR,,0.00,WeatherDisplay:10.37,2013-08-14 08:59:00,
2013-08-14 04:00:00,53.2,38.8,29.29,NNW,338,0.0,0.0,58,0.00,CLR,,0.00,WeatherDisplay:10.37,2013-08-14 09:00:00,
2013-08-14 04:02:00,53.2,38.8,29.29,NNW,338,0.0,0.0,58,0.00,CLR,,0.00,WeatherDisplay:10.37,2013-08-14 09:02:00,
2013-08-14 04:03:00,53.2,38.8,29.29,NNW,338,0.0,0.0,58,0.00,CLR,,0.00,WeatherDisplay:10.37,2013-08-14 09:03:00,
2013-08-14 04:04:00,53.1,38.7,29.29,NNW,338,0.0,0.0,58,0.00,CLR,,0.00,WeatherDisplay:10.37,2013-08-14 09:04:00,
2013-08-14 04:05:00,53.1,39.1,29.29,NNW,338,0.0,0.0,59,0.00,CLR,,0.00,WeatherDisplay:10.37,2013-08-14 09:05:00,
2013-08-14 04:09:00,53.1,39.1,29.29,NNW,338,0.0,0.0,59,0.00,CLR,,0.00,WeatherDisplay:10.37,2013-08-14 09:09:00,
2013-08-14 04:10:00,53.1,39.5,29.29,NNW,338,0.0,0.0,60,0.00,CLR,,0.00,WeatherDisplay:10.37,2013-08-14 09:10:00,
2013-08-14 04:11:00,53.1,39.5,29.29,NNW,338,0.0,0.0,60,0.00,CLR,,0.00,WeatherDisplay:10.37,2013-08-14 09:11:00,
2013-08-14 04:14:00,53.1,39.5,29.29,NNW,338,0.0,0.0,60,0.00,CLR,,0.00,WeatherDisplay:10.37,2013-08-14 09:14:00,
2013-08-14 04:15:00,53.1,39.5,29.29,NNW,338,0.0,0.0,60,0.00,CLR,,0.00,WeatherDisplay:10.37,2013-08-14 09:15:00,
2013-08-14 04:16:00,53.1,39.5,29.29,NNW,338,0.0,0.0,60,0.00,CLR,,0.00,WeatherDisplay:10.37,2013-08-14 09:16:00,
2013-08-14 04:18:00,53.1,40.0,29.29,NNW,338,0.0,0.0,61,0.00,CLR,,0.00,WeatherDisplay:10.37,2013-08-14 09:18:00,
2013-08-14 04:21:00,53.1,40.0,29.29,NNW,338,0.0,0.0,61,0.00,CLR,,0.00,WeatherDisplay:10.37,2013-08-14 09:21:00,
2013-08-14 04:22:00,53.1,40.0,29.29,NNW,338,0.0,0.0,61,0.00,CLR,,0.00,WeatherDisplay:10.37,2013-08-14 09:22:00,
2013-08-14 04:23:00,53.1,39.5,29.29,NNW,338,0.0,0.0,60,0.00,CLR,,0.00,WeatherDisplay:10.37,2013-08-14 09:23:00,
2013-08-14 04:26:00,52.9,39.4,29.29,NNW,338,0.0,0.0,60,0.00,CLR,,0.00,WeatherDisplay:10.37,2013-08-14 09:26:00,
2013-08-14 04:29:00,52.9,39.8,29.29,NNW,338,0.0,0.0,61,0.00,CLR,,0.00,WeatherDisplay:10.37,2013-08-14 09:29:00,
2013-08-14 04:31:00,52.9,39.8,29.29,NNW,338,0.0,0.0,61,0.00,CLR,,0.00,WeatherDisplay:10.37,2013-08-14 09:31:00,
2013-08-14 04:32:00,52.9,39.8,29.29,NNW,338,0.0,0.0,61,0.00,CLR,,0.00,WeatherDisplay:10.37,2013-08-14 09:32:00,
2013-08-14 04:33:00,52.9,39.8,29.29,NNW,338,0.0,0.0,61,0.00,CLR,,0.00,WeatherDisplay:10.37,2013-08-14 09:33:00,
2013-08-14 04:34:00,52.9,39.4,29.29,NNW,338,0.0,0.0,60,0.00,CLR,,0.00,WeatherDisplay:10.37,2013-08-14 09:34:00,
2013-08-14 04:36:00,52.9,39.4,29.29,NNW,338,0.0,0.0,60,0.00,CLR,,0.00,WeatherDisplay:10.37,2013-08-14 09:36:00,
2013-08-14 04:37:00,52.7,39.2,29.29,NNW,338,1.1,0.0,60,0.00,CLR,,0.00,WeatherDisplay:10.37,2013-08-14 09:37:00,
2013-08-14 04:39:00,52.7,39.2,29.29,NNW,338,0.0,0.0,60,0.00,CLR,,0.00,WeatherDisplay:10.37,2013-08-14 09:39:00,
2013-08-14 04:40:00,52.7,39.6,29.29,NNW,338,0.0,0.0,61,0.00,CLR,,0.00,WeatherDisplay:10.37,2013-08-14 09:40:00,
2013-08-14 04:42:00,52.7,39.6,29.29,NW,315,0.0,0.0,61,0.00,CLR,,0.00,WeatherDisplay:10.37,2013-08-14 09:42:00,
2013-08-14 04:44:00,52.7,39.6,29.29,NW,315,0.0,0.0,61,0.00,CLR,,0.00,WeatherDisplay:10.37,2013-08-14 09:44:00,
2013-08-14 04:45:00,52.7,39.6,29.29,WNW,292,0.0,0.0,61,0.00,CLR,,0.00,WeatherDisplay:10.37,2013-08-14 09:45:00,
2013-08-14 04:47:00,52.7,39.6,29.29,WNW,292,0.0,0.0,61,0.00,CLR,,0.00,WeatherDisplay:10.37,2013-08-14 09:47:00,
2013-08-14 04:49:00,52.7,39.6,29.29,WNW,292,0.0,0.0,61,0.00,CLR,,0.00,WeatherDisplay:10.37,2013-08-14 09:49:00,
2013-08-14 04:50:00,52.7,39.6,29.29,WNW,292,0.0,0.0,61,0.00,CLR,,0.00,WeatherDisplay:10.37,2013-08-14 09:50:00,
2013-08-14 04:52:00,52.7,39.6,29.29,WNW,292,0.0,0.0,61,0.00,CLR,,0.00,WeatherDisplay:10.37,2013-08-14 09:52:00,
2013-08-14 04:54:00,52.7,39.6,29.29,WNW,292,0.0,0.0,61,0.00,CLR,,0.00,WeatherDisplay:10.37,2013-08-14 09:54:00,
2013-08-14 04:55:00,52.5,39.5,29.29,WNW,292,0.0,0.0,61,0.00,CLR,,0.00,WeatherDisplay:10.37,2013-08-14 09:55:00,
2013-08-14 04:56:00,52.5,39.5,29.29,WNW,292,0.0,0.0,61,0.00,CLR,,0.00,WeatherDisplay:10.37,2013-08-14 09:56:00,
2013-08-14 04:57:00,52.5,39.5,29.29,WNW,292,0.0,0.0,61,0.00,CLR,,0.00,WeatherDisplay:10.37,2013-08-14 09:57:00,
2013-08-14 05:01:00,52.5,39.5,29.29,WNW,292,0.0,0.0,61,0.00,CLR,,0.00,WeatherDisplay:10.37,2013-08-14 10:01:00,
2013-08-14 05:02:00,52.5,39.5,29.29,WNW,292,0.0,0.0,61,0.00,CLR,,0.00,WeatherDisplay:10.37,2013-08-14 10:02:00,
2013-08-14 05:03:00,52.3,39.3,29.29,WNW,292,0.0,0.0,61,0.00,CLR,,0.00,WeatherDisplay:10.37,2013-08-14 10:03:00,
2013-08-14 05:04:00,52.3,39.3,29.29,WNW,292,0.0,0.0,61,0.00,CLR,,0.00,WeatherDisplay:10.37,2013-08-14 10:04:00,
2013-08-14 05:06:00,52.3,39.3,29.29,WNW,292,0.0,0.0,61,0.00,CLR,,0.00,WeatherDisplay:10.37,2013-08-14 10:06:00,
2013-08-14 05:08:00,52.3,39.3,29.29,WNW,292,0.0,0.0,61,0.00,CLR,,0.00,WeatherDisplay:10.37,2013-08-14 10:08:00,
2013-08-14 05:10:00,52.3,39.3,29.29,WNW,292,0.0,0.0,61,0.00,CLR,,0.00,WeatherDisplay:10.37,2013-08-14 10:10:00,
2013-08-14 05:11:00,52.3,39.3,29.29,WNW,292,0.0,0.0,61,0.00,CLR,,0.00,WeatherDisplay:10.37,2013-08-14 10:11:00,
2013-08-14 05:12:00,52.3,39.3,29.29,WNW,292,0.0,0.0,61,0.00,CLR,,0.00,WeatherDisplay:10.37,2013-08-14 10:12:00,
2013-08-14 05:13:00,52.3,39.3,29.29,WNW,292,0.0,0.0,61,0.00,CLR,,0.00,WeatherDisplay:10.37,2013-08-14 10:13:00,
2013-08-14 05:15:00,52.3,39.3,29.29,WNW,292,0.0,0.0,61,0.00,CLR,,0.00,WeatherDisplay:10.37,2013-08-14 10:15:00,
2013-08-14 05:16:00,52.3,39.7,29.29,WNW,292,0.0,0.0,62,0.00,CLR,,0.00,WeatherDisplay:10.37,2013-08-14 10:16:00,
2013-08-14 05:18:00,52.3,39.7,29.29,WNW,292,0.0,0.0,62,0.00,CLR,,0.00,WeatherDisplay:10.37,2013-08-14 10:18:00,
2013-08-14 05:19:00,52.3,39.7,29.29,WNW,292,0.0,0.0,62,0.00,CLR,,0.00,WeatherDisplay:10.37,2013-08-14 10:19:00,
2013-08-14 05:20:00,52.3,39.7,29.29,WNW,292,0.0,0.0,62,0.00,CLR,,0.00,WeatherDisplay:10.37,2013-08-14 10:20:00,
2013-08-14 05:22:00,52.5,39.9,29.29,WNW,292,0.0,0.0,62,0.00,CLR,,0.00,WeatherDisplay:10.37,2013-08-14 10:22:00,
2013-08-14 05:24:00,52.5,39.9,29.29,WNW,292,0.0,0.0,62,0.00,CLR,,0.00,WeatherDisplay:10.37,2013-08-14 10:24:00,
2013-08-14 05:26:00,52.3,39.3,29.29,WNW,292,0.0,0.0,61,0.00,CLR,,0.00,WeatherDisplay:10.37,2013-08-14 10:26:00,
2013-08-14 05:27:00,52.3,39.3,29.29,WNW,292,0.0,0.0,61,0.00,CLR,,0.00,WeatherDisplay:10.37,2013-08-14 10:27:00,
2013-08-14 05:28:00,52.3,39.3,29.29,WNW,292,0.0,0.0,61,0.00,CLR,,0.00,WeatherDisplay:10.37,2013-08-14 10:28:00,
2013-08-14 05:29:00,52.3,39.3,29.29,WNW,292,0.0,0.0,61,0.00,CLR,,0.00,WeatherDisplay:10.37,2013-08-14 10:29:00,
2013-08-14 05:31:00,52.3,39.3,29.29,WNW,292,0.0,0.0,61,0.00,CLR,,0.00,WeatherDisplay:10.37,2013-08-14 10:31:00,
2013-08-14 05:33:00,52.3,39.3,29.29,WNW,292,0.0,0.0,61,0.00,CLR,,0.00,WeatherDisplay:10.37,2013-08-14 10:33:00,
2013-08-14 05:34:00,52.2,39.1,29.29,WNW,292,0.0,0.0,61,0.00,CLR,,0.00,WeatherDisplay:10.37,2013-08-14 10:34:00,
2013-08-14 05:35:00,52.2,39.1,29.29,WNW,292,0.0,0.0,61,0.00,CLR,,0.00,WeatherDisplay:10.37,2013-08-14 10:35:00,
2013-08-14 05:36:00,52.2,39.1,29.29,WNW,292,0.0,0.0,61,0.00,CLR,,0.00,WeatherDisplay:10.37,2013-08-14 10:36:00,
2013-08-14 05:37:00,52.2,39.1,29.29,WNW,292,0.0,0.0,61,0.00,CLR,,0.00,WeatherDisplay:10.37,2013-08-14 10:37:00,
2013-08-14 05:39:00,52.2,39.1,29.29,WNW,292,0.0,0.0,61,0.00,CLR,,0.00,WeatherDisplay:10.37,2013-08-14 10:39:00,
2013-08-14 05:40:00,52.2,39.1,29.29,WNW,292,0.0,0.0,61,0.00,CLR,,0.00,WeatherDisplay:10.37,2013-08-14 10:40:00,
2013-08-14 05:41:00,52.0,39.4,29.29,WNW,292,0.0,0.0,62,0.00,CLR,,0.00,WeatherDisplay:10.37,2013-08-14 10:41:00,
2013-08-14 05:42:00,52.0,39.4,29.32,WNW,292,0.0,0.0,62,0.00,CLR,,0.00,WeatherDisplay:10.37,2013-08-14 10:42:00,
2013-08-14 05:44:00,52.0,39.4,29.32,WNW,292,0.0,0.0,62,0.00,CLR,,0.00,WeatherDisplay:10.37,2013-08-14 10:44:00,
2013-08-14 05:45:00,52.0,39.4,29.32,WNW,292,0.0,0.0,62,0.00,CLR,,0.00,WeatherDisplay:10.37,2013-08-14 10:45:00,
2013-08-14 05:47:00,52.0,39.4,29.32,WNW,292,0.0,0.0,62,0.00,CLR,,0.00,WeatherDisplay:10.37,2013-08-14 10:47:00,
2013-08-14 05:49:00,52.0,39.4,29.32,WNW,292,0.0,0.0,62,0.00,CLR,,0.00,WeatherDisplay:10.37,2013-08-14 10:49:00,
2013-08-14 05:50:00,52.0,39.4,29.32,WNW,292,0.0,0.0,62,0.00,CLR,,0.00,WeatherDisplay:10.37,2013-08-14 10:50:00,
2013-08-14 05:52:00,52.0,39.4,29.32,NW,315,0.0,0.0,62,0.00,CLR,,0.00,WeatherDisplay:10.37,2013-08-14 10:52:00,
2013-08-14 05:53:00,52.0,39.4,29.32,NW,315,0.0,0.0,62,0.00,CLR,,0.00,WeatherDisplay:10.37,2013-08-14 10:53:00,
2013-08-14 05:58:00,51.8,39.2,29.32,NW,315,0.0,0.0,62,0.00,CLR,,0.00,WeatherDisplay:10.37,2013-08-14 10:58:00,
2013-08-14 05:59:00,51.8,39.2,29.32,NW,315,0.0,0.0,62,0.00,CLR,,0.00,WeatherDisplay:10.37,2013-08-14 10:59:00,
2013-08-14 06:00:00,51.8,39.2,29.32,NW,315,0.0,0.0,62,0.00,CLR,,0.00,WeatherDisplay:10.37,2013-08-14 11:00:00,
2013-08-14 06:05:00,51.6,39.0,29.32,NW,315,0.0,0.0,62,0.00,CLR,,0.00,WeatherDisplay:10.37,2013-08-14 11:05:00,
2013-08-14 06:06:00,51.6,39.0,29.32,NW,315,0.0,0.0,62,0.00,CLR,,0.00,WeatherDisplay:10.37,2013-08-14 11:06:00,
2013-08-14 06:07:00,51.6,39.0,29.32,NW,315,0.0,0.0,62,0.00,CLR,,0.00,WeatherDisplay:10.37,2013-08-14 11:07:00,
2013-08-14 06:09:00,51.6,39.4,29.32,NW,315,0.0,0.0,63,0.00,CLR,,0.00,WeatherDisplay:10.37,2013-08-14 11:09:00,
2013-08-14 06:12:00,51.6,39.4,29.32,NW,315,1.1,0.0,63,0.00,CLR,,0.00,WeatherDisplay:10.37,2013-08-14 11:12:00,
2013-08-14 06:14:00,51.6,39.4,29.32,NW,315,1.1,1.1,63,0.00,CLR,,0.00,WeatherDisplay:10.37,2013-08-14 11:14:00,
2013-08-14 06:16:00,51.6,39.4,29.32,NW,315,0.0,0.0,63,0.00,CLR,,0.00,WeatherDisplay:10.37,2013-08-14 11:16:00,
2013-08-14 06:19:00,51.6,39.4,29.32,NW,315,1.1,0.0,63,0.00,CLR,,0.00,WeatherDisplay:10.37,2013-08-14 11:19:00,
2013-08-14 06:21:00,51.6,39.4,29.32,NNE,22,0.0,0.0,63,0.00,CLR,,0.00,WeatherDisplay:10.37,2013-08-14 11:21:00,
2013-08-14 06:22:00,51.6,39.4,29.32,NNE,22,0.0,0.0,63,0.00,CLR,,0.00,WeatherDisplay:10.37,2013-08-14 11:22:00,
2013-08-14 06:23:00,51.6,39.4,29.32,NNE,22,0.0,0.0,63,0.00,CLR,,0.00,WeatherDisplay:10.37,2013-08-14 11:23:00,
2013-08-14 06:26:00,51.8,39.6,29.32,NNE,22,0.0,0.0,63,0.00,CLR,,0.00,WeatherDisplay:10.37,2013-08-14 11:26:00,
2013-08-14 06:27:00,51.8,39.6,29.29,NNE,22,0.0,0.0,63,0.00,CLR,,0.00,WeatherDisplay:10.37,2013-08-14 11:27:00,
2013-08-14 06:28:00,51.8,39.6,29.29,NNE,22,0.0,0.0,63,0.00,CLR,,0.00,WeatherDisplay:10.37,2013-08-14 11:28:00,
2013-08-14 06:29:00,51.8,39.6,29.29,NNE,22,0.0,0.0,63,0.00,CLR,,0.00,WeatherDisplay:10.37,2013-08-14 11:29:00,
2013-08-14 06:32:00,51.8,39.6,29.29,NNE,22,0.0,0.0,63,0.00,CLR,,0.00,WeatherDisplay:10.37,2013-08-14 11:32:00,
2013-08-14 06:33:00,51.8,39.6,29.29,NNE,22,0.0,0.0,63,0.00,CLR,,0.00,WeatherDisplay:10.37,2013-08-14 11:33:00,
2013-08-14 06:34:00,52.0,39.8,29.29,NNE,22,0.0,0.0,63,0.00,CLR,,0.00,WeatherDisplay:10.37,2013-08-14 11:34:00,
2013-08-14 06:35:00,52.0,39.4,29.29,NNE,22,0.0,0.0,62,0.00,CLR,,0.00,WeatherDisplay:10.37,2013-08-14 11:35:00,
2013-08-14 06:36:00,52.0,39.4,29.29,NNE,22,0.0,0.0,62,0.00,CLR,,0.00,WeatherDisplay:10.37,2013-08-14 11:36:00,
2013-08-14 06:39:00,52.0,39.8,29.29,NNE,22,0.0,0.0,63,0.00,CLR,,0.00,WeatherDisplay:10.37,2013-08-14 11:39:00,
2013-08-14 06:41:00,52.2,39.9,29.29,NNE,22,0.0,0.0,63,0.00,CLR,,0.00,WeatherDisplay:10.37,2013-08-14 11:41:00,
2013-08-14 06:42:00,52.3,40.1,29.32,NNE,22,0.0,0.0,63,0.00,CLR,,0.00,WeatherDisplay:10.37,2013-08-14 11:42:00,
2013-08-14 06:43:00,52.3,40.1,29.32,NNE,22,0.9,0.0,63,0.00,CLR,,0.00,WeatherDisplay:10.37,2013-08-14 11:43:00,
2013-08-14 06:45:00,52.5,40.7,29.32,NNE,22,1.1,1.1,64,0.00,CLR,,0.00,WeatherDisplay:10.37,2013-08-14 11:45:00,
2013-08-14 06:47:00,52.7,40.9,29.32,NNE,22,0.0,0.0,64,0.00,CLR,,0.00,WeatherDisplay:10.37,2013-08-14 11:47:00,
2013-08-14 06:48:00,52.7,40.9,29.32,North,0,0.0,0.0,64,0.00,CLR,,0.00,WeatherDisplay:10.37,2013-08-14 11:48:00,
2013-08-14 06:49:00,52.7,40.5,29.32,North,0,0.0,0.0,63,0.00,CLR,,0.00,WeatherDisplay:10.37,2013-08-14 11:49:00,
2013-08-14 06:52:00,53.1,40.8,29.32,NNW,338,0.0,0.0,63,0.00,CLR,,0.00,WeatherDisplay:10.37,2013-08-14 11:52:00,
2013-08-14 06:53:00,53.1,40.8,29.32,NNW,338,0.0,0.0,63,0.00,CLR,,0.00,WeatherDisplay:10.37,2013-08-14 11:53:00,
2013-08-14 06:54:00,53.4,41.1,29.32,NNW,338,0.0,0.0,63,0.00,CLR,,0.00,WeatherDisplay:10.37,2013-08-14 11:54:00,
2013-08-14 06:55:00,53.6,41.3,29.32,NNW,338,0.0,0.0,63,0.00,CLR,,0.00,WeatherDisplay:10.37,2013-08-14 11:55:00,
2013-08-14 06:58:00,54.9,42.5,29.32,NNW,338,0.0,0.0,63,0.00,CLR,,0.00,WeatherDisplay:10.37,2013-08-14 11:58:00,
2013-08-14 06:59:00,55.0,42.7,29.32,NNW,338,0.0,0.0,63,0.00,CLR,,0.00,WeatherDisplay:10.37,2013-08-14 11:59:00,
2013-08-14 07:00:00,55.4,43.0,29.32,NNW,338,0.0,0.0,63,0.00,CLR,,0.00,WeatherDisplay:10.37,2013-08-14 12:00:00,
2013-08-14 07:04:00,56.8,43.5,29.32,NNW,338,0.0,0.0,61,0.00,CLR,,0.00,WeatherDisplay:10.37,2013-08-14 12:04:00,
2013-08-14 07:05:00,57.2,43.4,29.32,NNW,338,0.0,0.0,60,0.00,CLR,,0.00,WeatherDisplay:10.37,2013-08-14 12:05:00,
2013-08-14 07:08:00,58.3,43.1,29.32,WNW,292,0.0,0.0,57,0.00,CLR,,0.00,WeatherDisplay:10.37,2013-08-14 12:08:00,
2013-08-14 07:10:00,58.8,43.1,29.32,WNW,292,1.1,0.0,56,0.00,CLR,,0.00,WeatherDisplay:10.37,2013-08-14 12:10:00,
2013-08-14 07:11:00,59.0,43.3,29.32,WNW,292,1.4,1.4,56,0.00,CLR,,0.00,WeatherDisplay:10.37,2013-08-14 12:11:00,
2013-08-14 07:13:00,59.4,42.7,29.32,NW,315,0.0,0.0,54,0.00,CLR,,0.00,WeatherDisplay:10.37,2013-08-14 12:13:00,
2013-08-14 07:15:00,59.5,43.3,29.32,NW,315,0.0,0.0,55,0.00,CLR,,0.00,WeatherDisplay:10.37,2013-08-14 12:15:00,
2013-08-14 07:16:00,59.9,43.2,29.32,NW,315,0.0,0.0,54,0.00,CLR,,0.00,WeatherDisplay:10.37,2013-08-14 12:16:00,
2013-08-14 07:17:00,59.9,42.7,29.32,NW,315,0.0,0.0,53,0.00,CLR,,0.00,WeatherDisplay:10.37,2013-08-14 12:17:00,
2013-08-14 07:18:00,60.1,42.9,29.32,NW,315,0.0,0.0,53,0.00,CLR,,0.00,WeatherDisplay:10.37,2013-08-14 12:18:00,
2013-08-14 07:20:00,60.3,42.6,29.32,NW,315,0.0,0.0,52,0.00,CLR,,0.00,WeatherDisplay:10.37,2013-08-14 12:20:00,
2013-08-14 07:22:00,60.4,42.7,29.32,NW,315,0.0,0.0,52,0.00,CLR,,0.00,WeatherDisplay:10.37,2013-08-14 12:22:00,
2013-08-14 07:23:00,60.4,42.2,29.32,NW,315,0.0,0.0,51,0.00,CLR,,0.00,WeatherDisplay:10.37,2013-08-14 12:23:00,
2013-08-14 07:24:00,60.4,40.6,29.32,SW,225,0.0,0.0,48,0.00,CLR,,0.00,WeatherDisplay:10.37,2013-08-14 12:24:00,
2013-08-14 07:26:00,60.3,39.9,29.32,SW,225,0.0,0.0,47,0.00,CLR,,0.00,WeatherDisplay:10.37,2013-08-14 12:26:00,
2013-08-14 07:27:00,60.4,40.6,29.32,SSW,202,0.9,0.0,48,0.00,CLR,,0.00,WeatherDisplay:10.37,2013-08-14 12:27:00,
2013-08-14 07:29:00,60.4,40.1,29.32,SSW,202,1.1,1.1,47,0.00,CLR,,0.00,WeatherDisplay:10.37,2013-08-14 12:29:00,
2013-08-14 07:31:00,60.3,39.4,29.32,SSW,202,0.0,0.0,46,0.00,CLR,,0.00,WeatherDisplay:10.37,2013-08-14 12:31:00,
2013-08-14 07:33:00,60.3,39.4,29.32,SSW,202,0.0,0.0,46,0.00,CLR,,0.00,WeatherDisplay:10.37,2013-08-14 12:33:00,
2013-08-14 07:34:00,60.1,39.2,29.32,SSW,202,0.0,0.0,46,0.00,CLR,,0.00,WeatherDisplay:10.37,2013-08-14 12:34:00,
2013-08-14 07:35:00,60.1,39.2,29.32,SSW,202,0.0,0.0,46,0.00,CLR,,0.00,WeatherDisplay:10.37,2013-08-14 12:35:00,
2013-08-14 07:38:00,60.3,39.9,29.32,SSW,202,0.0,0.0,47,0.00,CLR,,0.00,WeatherDisplay:10.37,2013-08-14 12:38:00,
2013-08-14 07:39:00,60.3,39.4,29.32,NNW,338,2.3,2.3,46,0.00,CLR,,0.00,WeatherDisplay:10.37,2013-08-14 12:39:00,
2013-08-14 07:40:00,60.3,39.4,29.32,WNW,292,2.4,2.4,46,0.00,CLR,,0.00,WeatherDisplay:10.37,2013-08-14 12:40:00,
2013-08-14 07:44:00,60.4,39.5,29.32,WNW,292,2.3,2.3,46,0.00,CLR,,0.00,WeatherDisplay:10.37,2013-08-14 12:44:00,
2013-08-14 07:45:00,60.4,39.5,29.32,West,270,2.3,2.3,46,0.00,CLR,,0.00,WeatherDisplay:10.37,2013-08-14 12:45:00,
2013-08-14 07:47:00,60.6,39.7,29.32,WNW,292,0.0,0.0,46,0.00,CLR,,0.00,WeatherDisplay:10.37,2013-08-14 12:47:00,
2013-08-14 07:50:00,60.6,39.7,29.32,WNW,292,0.0,0.0,46,0.00,CLR,,0.00,WeatherDisplay:10.37,2013-08-14 12:50:00,
2013-08-14 07:51:00,60.8,39.9,29.32,WNW,292,0.0,0.0,46,0.00,CLR,,0.00,WeatherDisplay:10.37,2013-08-14 12:51:00,
2013-08-14 07:54:00,60.8,39.9,29.32,NW,315,1.1,0.0,46,0.00,CLR,,0.00,WeatherDisplay:10.37,2013-08-14 12:54:00,
2013-08-14 07:55:00,60.8,39.3,29.32,WNW,292,1.1,0.0,45,0.00,CLR,,0.00,WeatherDisplay:10.37,2013-08-14 12:55:00,
2013-08-14 07:56:00,61.0,39.5,29.32,West,270,1.1,1.1,45,0.00,CLR,,0.00,WeatherDisplay:10.37,2013-08-14 12:56:00,
2013-08-14 07:57:00,61.0,40.0,29.32,West,270,2.2,2.2,46,0.00,CLR,,0.00,WeatherDisplay:10.37,2013-08-14 12:57:00,
2013-08-14 07:59:00,61.0,40.0,29.32,NW,315,1.4,0.0,46,0.00,CLR,,0.00,WeatherDisplay:10.37,2013-08-14 12:59:00,
2013-08-14 08:00:00,61.0,40.0,29.32,NW,315,2.0,2.0,46,0.00,CLR,,0.00,WeatherDisplay:10.37,2013-08-14 13:00:00,
2013-08-14 08:01:00,61.0,40.0,29.32,West,270,3.8,3.8,46,0.00,CLR,,0.00,WeatherDisplay:10.37,2013-08-14 13:01:00,
2013-08-14 08:02:00,61.2,40.2,29.32,WNW,292,3.5,3.5,46,0.00,CLR,,0.00,WeatherDisplay:10.37,2013-08-14 13:02:00,
2013-08-14 08:04:00,61.2,40.2,29.32,NW,315,2.3,2.3,46,0.00,CLR,,0.00,WeatherDisplay:10.37,2013-08-14 13:04:00,
2013-08-14 08:05:00,61.2,39.6,29.32,WNW,292,2.4,2.4,45,0.00,CLR,,0.00,WeatherDisplay:10.37,2013-08-14 13:05:00,
2013-08-14 08:07:00,61.0,39.5,29.32,WNW,292,3.3,3.3,45,0.00,CLR,,0.00,WeatherDisplay:10.37,2013-08-14 13:07:00,
2013-08-14 08:08:00,61.0,39.5,29.32,NW,315,3.5,3.5,45,0.00,CLR,,0.00,WeatherDisplay:10.37,2013-08-14 13:08:00,
2013-08-14 08:13:00,61.2,40.2,29.32,NW,315,1.4,0.0,46,0.00,CLR,,0.00,WeatherDisplay:10.37,2013-08-14 13:13:00,
2013-08-14 08:14:00,61.2,40.2,29.32,West,270,3.6,3.6,46,0.00,CLR,,0.00,WeatherDisplay:10.37,2013-08-14 13:14:00,
2013-08-14 08:15:00,61.3,40.4,29.32,West,270,3.5,3.5,46,0.00,CLR,,0.00,WeatherDisplay:10.37,2013-08-14 13:15:00,
2013-08-14 08:19:00,61.3,40.4,29.32,West,270,2.3,2.3,46,0.00,CLR,,0.00,WeatherDisplay:10.37,2013-08-14 13:19:00,
2013-08-14 08:20:00,61.3,40.4,29.32,West,270,3.5,3.5,46,0.00,CLR,,0.00,WeatherDisplay:10.37,2013-08-14 13:20:00,
2013-08-14 08:21:00,61.3,40.4,29.32,NW,315,3.5,3.5,46,0.00,CLR,,0.00,WeatherDisplay:10.37,2013-08-14 13:21:00,
2013-08-14 08:22:00,61.3,40.4,29.32,NNW,338,2.3,2.3,46,0.00,CLR,,0.00,WeatherDisplay:10.37,2013-08-14 13:22:00,
2013-08-14 08:24:00,61.5,41.1,29.32,WNW,292,2.3,2.3,47,0.00,CLR,,0.00,WeatherDisplay:10.37,2013-08-14 13:24:00,
2013-08-14 08:26:00,61.7,41.3,29.32,WNW,292,2.4,2.4,47,0.00,CLR,,0.00,WeatherDisplay:10.37,2013-08-14 13:26:00,
2013-08-14 08:27:00,61.9,41.4,29.32,WNW,292,2.3,2.3,47,0.00,CLR,,0.00,WeatherDisplay:10.37,2013-08-14 13:27:00,
2013-08-14 08:29:00,61.9,41.4,29.32,NNW,338,1.4,1.4,47,0.00,CLR,,0.00,WeatherDisplay:10.37,2013-08-14 13:29:00,
2013-08-14 08:31:00,62.1,41.0,29.32,NNW,338,2.3,2.3,46,0.00,CLR,,0.00,WeatherDisplay:10.37,2013-08-14 13:31:00,
2013-08-14 08:32:00,62.2,41.7,29.32,WNW,292,2.3,0.0,47,0.00,CLR,,0.00,WeatherDisplay:10.37,2013-08-14 13:32:00,
2013-08-14 08:34:00,62.6,42.1,29.32,WNW,292,1.6,0.0,47,0.00,CLR,,0.00,WeatherDisplay:10.37,2013-08-14 13:34:00,
2013-08-14 08:37:00,63.1,42.6,29.32,West,270,4.0,4.0,47,0.00,CLR,,0.00,WeatherDisplay:10.37,2013-08-14 13:37:00,
2013-08-14 08:38:00,63.3,42.7,29.32,NNW,338,4.6,4.6,47,0.00,CLR,,0.00,WeatherDisplay:10.37,2013-08-14 13:38:00,
2013-08-14 08:39:00,63.5,42.3,29.32,WNW,292,3.5,3.5,46,0.00,CLR,,0.00,WeatherDisplay:10.37,2013-08-14 13:39:00,
2013-08-14 08:42:00,64.0,42.8,29.32,WNW,292,2.4,2.4,46,0.00,CLR,,0.00,WeatherDisplay:10.37,2013-08-14 13:42:00,
2013-08-14 08:44:00,64.0,42.8,29.32,West,270,3.5,3.6,46,0.00,CLR,,0.00,WeatherDisplay:10.37,2013-08-14 13:44:00,
2013-08-14 08:45:00,64.8,42.9,29.32,WNW,292,3.5,3.5,45,0.00,CLR,,0.00,WeatherDisplay:10.37,2013-08-14 13:45:00,
2013-08-14 08:47:00,65.1,43.2,29.32,NNE,22,2.3,2.3,45,0.00,CLR,,0.00,WeatherDisplay:10.37,2013-08-14 13:47:00,
2013-08-14 08:48:00,65.3,42.8,29.32,NNW,338,2.3,2.3,44,0.00,CLR,,0.00,WeatherDisplay:10.37,2013-08-14 13:48:00,
2013-08-14 08:49:00,65.5,43.6,29.32,ENE,68,1.1,1.1,45,0.00,CLR,,0.00,WeatherDisplay:10.37,2013-08-14 13:49:00,
2013-08-14 08:52:00,65.5,39.9,29.32,ENE,68,2.6,2.6,39,0.00,CLR,,0.00,WeatherDisplay:10.37,2013-08-14 13:52:00,
2013-08-14 08:53:00,65.5,39.9,29.32,ENE,68,2.3,2.4,39,0.00,CLR,,0.00,WeatherDisplay:10.37,2013-08-14 13:53:00,
2013-08-14 08:54:00,65.7,41.3,29.32,NNE,22,1.6,1.6,41,0.00,CLR,,0.00,WeatherDisplay:10.37,2013-08-14 13:54:00,
2013-08-14 08:57:00,66.2,42.4,29.29,North,0,2.3,2.3,42,0.00,CLR,,0.00,WeatherDisplay:10.37,2013-08-14 13:57:00,
2013-08-14 08:58:00,66.4,42.6,29.29,NW,315,2.9,2.9,42,0.00,CLR,,0.00,WeatherDisplay:10.37,2013-08-14 13:58:00,
2013-08-14 08:59:00,66.6,42.1,29.29,NW,315,2.3,2.3,41,0.00,CLR,,0.00,WeatherDisplay:10.37,2013-08-14 13:59:00,
2013-08-14 09:01:00,66.7,41.6,29.29,West,270,3.5,3.5,40,0.00,CLR,,0.00,WeatherDisplay:10.37,2013-08-14 14:01:00,
2013-08-14 09:03:00,66.9,41.1,29.29,West,270,3.5,3.5,39,0.00,CLR,,0.00,WeatherDisplay:10.37,2013-08-14 14:03:00,
2013-08-14 09:04:00,67.1,40.6,29.29,West,270,2.3,2.4,38,0.00,CLR,,0.00,WeatherDisplay:10.37,2013-08-14 14:04:00,
2013-08-14 09:05:00,67.1,41.3,29.29,WNW,292,3.5,3.5,39,0.00,CLR,,0.00,WeatherDisplay:10.37,2013-08-14 14:05:00,
2013-08-14 09:06:00,67.3,41.5,29.29,WNW,292,4.6,4.6,39,0.00,CLR,,0.00,WeatherDisplay:10.37,2013-08-14 14:06:00,
2013-08-14 09:09:00,67.6,42.4,29.29,West,270,4.6,4.6,40,0.00,CLR,,0.00,WeatherDisplay:10.37,2013-08-14 14:09:00,
2013-08-14 09:12:00,68.0,42.1,29.32,West,270,2.9,2.9,39,0.00,CLR,,0.00,WeatherDisplay:10.37,2013-08-14 14:12:00,
2013-08-14 09:14:00,68.2,40.9,29.32,NNE,22,4.6,4.6,37,0.00,CLR,,0.00,WeatherDisplay:10.37,2013-08-14 14:14:00,
2013-08-14 09:15:00,68.2,40.9,29.32,NNE,22,4.6,4.6,37,0.00,CLR,,0.00,WeatherDisplay:10.37,2013-08-14 14:15:00,
2013-08-14 09:18:00,68.4,41.1,29.32,NNE,22,2.3,2.3,37,0.00,CLR,,0.00,WeatherDisplay:10.37,2013-08-14 14:18:00,
2013-08-14 09:19:00,68.5,41.9,29.32,NNW,338,2.4,2.4,38,0.00,CLR,,0.00,WeatherDisplay:10.37,2013-08-14 14:19:00,
2013-08-14 09:20:00,68.5,41.9,29.32,West,270,3.8,3.8,38,0.00,CLR,,0.00,WeatherDisplay:10.37,2013-08-14 14:20:00,
2013-08-14 09:23:00,68.7,41.4,29.32,West,270,3.1,3.1,37,0.00,CLR,,0.00,WeatherDisplay:10.37,2013-08-14 14:23:00,
2013-08-14 09:24:00,68.7,41.4,29.32,NW,315,3.5,3.5,37,0.00,CLR,,0.00,WeatherDisplay:10.37,2013-08-14 14:24:00,
2013-08-14 09:25:00,68.7,40.7,29.32,West,270,4.7,4.7,36,0.00,CLR,,0.00,WeatherDisplay:10.37,2013-08-14 14:25:00,
2013-08-14 09:26:00,68.7,40.7,29.32,WNW,292,4.6,4.6,36,0.00,CLR,,0.00,WeatherDisplay:10.37,2013-08-14 14:26:00,
2013-08-14 09:29:00,68.9,40.8,29.32,WNW,292,3.5,3.5,36,0.00,CLR,,0.00,WeatherDisplay:10.37,2013-08-14 14:29:00,
2013-08-14 09:31:00,69.1,41.0,29.32,West,270,3.5,3.5,36,0.00,CLR,,0.00,WeatherDisplay:10.37,2013-08-14 14:31:00,
2013-08-14 09:33:00,69.3,39.7,29.32,WNW,292,3.5,3.5,34,0.00,CLR,,0.00,WeatherDisplay:10.37,2013-08-14 14:33:00,
2013-08-14 09:35:00,69.3,39.7,29.32,NW,315,0.0,0.0,34,0.00,CLR,,0.00,WeatherDisplay:10.37,2013-08-14 14:35:00,
2013-08-14 09:36:00,69.3,40.4,29.32,NNE,22,3.5,3.5,35,0.00,CLR,,0.00,WeatherDisplay:10.37,2013-08-14 14:36:00,
2013-08-14 09:39:00,69.6,41.5,29.32,NW,315,2.3,2.3,36,0.00,CLR,,0.00,WeatherDisplay:10.37,2013-08-14 14:39:00,
2013-08-14 09:40:00,69.6,40.7,29.32,NW,315,1.1,1.1,35,0.00,CLR,,0.00,WeatherDisplay:10.37,2013-08-14 14:40:00,
2013-08-14 09:42:00,69.6,40.7,29.32,NW,315,2.3,2.3,35,0.00,CLR,,0.00,WeatherDisplay:10.37,2013-08-14 14:42:00,
2013-08-14 09:44:00,69.8,40.9,29.32,NE,45,2.3,2.3,35,0.00,CLR,,0.00,WeatherDisplay:10.37,2013-08-14 14:44:00,
2013-08-14 09:46:00,69.8,39.4,29.32,ENE,68,2.3,2.3,33,0.00,CLR,,0.00,WeatherDisplay:10.37,2013-08-14 14:46:00,
2013-08-14 09:47:00,70.0,40.3,29.32,WNW,292,3.6,3.6,34,0.00,CLR,,0.00,WeatherDisplay:10.37,2013-08-14 14:47:00,
2013-08-14 09:49:00,70.3,41.4,29.32,North,0,3.5,3.5,35,0.00,CLR,,0.00,WeatherDisplay:10.37,2013-08-14 14:49:00,
2013-08-14 09:51:00,70.3,40.6,29.32,West,270,3.1,3.1,34,0.00,CLR,,0.00,WeatherDisplay:10.37,2013-08-14 14:51:00,
2013-08-14 09:53:00,70.3,40.6,29.32,NW,315,5.8,5.8,34,0.00,CLR,,0.00,WeatherDisplay:10.37,2013-08-14 14:53:00,
2013-08-14 09:54:00,70.5,40.0,29.32,WSW,248,5.8,5.8,33,0.00,CLR,,0.00,WeatherDisplay:10.37,2013-08-14 14:54:00,
2013-08-14 09:56:00,70.9,40.3,29.35,West,270,5.8,5.8,33,0.00,CLR,,0.00,WeatherDisplay:10.37,2013-08-14 14:56:00,
2013-08-14 09:57:00,70.9,40.3,29.35,WNW,292,5.8,5.8,33,0.00,CLR,,0.00,WeatherDisplay:10.37,2013-08-14 14:57:00,
2013-08-14 09:58:00,70.9,40.3,29.35,WNW,292,4.6,4.6,33,0.00,CLR,,0.00,WeatherDisplay:10.37,2013-08-14 14:58:00,
2013-08-14 09:59:00,70.9,40.3,29.35,West,270,4.9,4.9,33,0.00,CLR,,0.00,WeatherDisplay:10.37,2013-08-14 14:59:00,
2013-08-14 10:02:00,71.2,40.6,29.35,West,270,3.8,3.8,33,0.00,CLR,,0.00,WeatherDisplay:10.37,2013-08-14 15:02:00,
2013-08-14 10:03:00,71.2,40.6,29.35,ESE,112,3.5,3.5,33,0.00,CLR,,0.00,WeatherDisplay:10.37,2013-08-14 15:03:00,
2013-08-14 10:04:00,71.1,39.7,29.35,East,90,2.3,2.3,32,0.00,CLR,,0.00,WeatherDisplay:10.37,2013-08-14 15:04:00,
2013-08-14 10:08:00,71.2,40.6,29.35,SW,225,4.6,4.6,33,0.00,CLR,,0.00,WeatherDisplay:10.37,2013-08-14 15:08:00,
2013-08-14 10:09:00,71.1,39.7,29.35,NNE,22,2.3,2.3,32,0.00,CLR,,0.00,WeatherDisplay:10.37,2013-08-14 15:09:00,
2013-08-14 10:10:00,70.9,39.5,29.35,WNW,292,2.3,2.3,32,0.00,CLR,,0.00,WeatherDisplay:10.37,2013-08-14 15:10:00,
2013-08-14 10:11:00,71.2,39.9,29.35,WNW,292,5.6,5.6,32,0.00,CLR,,0.00,WeatherDisplay:10.37,2013-08-14 15:11:00,
2013-08-14 10:14:00,71.4,40.0,29.35,West,270,5.8,5.8,32,0.00,CLR,,0.00,WeatherDisplay:10.37,2013-08-14 15:14:00,
2013-08-14 10:15:00,71.4,38.4,29.35,WSW,248,5.8,5.8,30,0.00,CLR,,0.00,WeatherDisplay:10.37,2013-08-14 15:15:00,
2013-08-14 10:16:00,71.4,38.4,29.35,West,270,5.8,5.8,30,0.00,CLR,,0.00,WeatherDisplay:10.37,2013-08-14 15:16:00,
2013-08-14 10:20:00,72.1,40.6,29.35,NNW,338,5.8,5.8,32,0.00,CLR,,0.00,WeatherDisplay:10.37,2013-08-14 15:20:00,
2013-08-14 10:22:00,72.0,39.7,29.35,WSW,248,5.8,5.8,31,0.00,CLR,,0.00,WeatherDisplay:10.37,2013-08-14 15:22:00,
2013-08-14 10:24:00,72.1,39.8,29.35,West,270,4.6,4.6,31,0.00,CLR,,0.00,WeatherDisplay:10.37,2013-08-14 15:24:00,
2013-08-14 10:25:00,72.1,39.8,29.35,NNE,22,3.5,3.5,31,0.00,CLR,,0.00,WeatherDisplay:10.37,2013-08-14 15:25:00,
2013-08-14 10:27:00,72.1,39.0,29.35,NNW,338,6.0,6.0,30,0.00,CLR,,0.00,WeatherDisplay:10.37,2013-08-14 15:27:00,
2013-08-14 10:29:00,72.1,38.1,29.35,WNW,292,5.8,5.8,29,0.00,CLR,,0.00,WeatherDisplay:10.37,2013-08-14 15:29:00,
2013-08-14 10:30:00,72.3,40.0,29.35,WNW,292,4.5,4.5,31,0.00,CLR,,0.00,WeatherDisplay:10.37,2013-08-14 15:30:00,
2013-08-14 10:31:00,72.3,40.0,29.35,NNW,338,4.9,4.9,31,0.00,CLR,,0.00,WeatherDisplay:10.37,2013-08-14 15:31:00,
2013-08-14 10:33:00,72.3,39.1,29.35,WNW,292,5.8,5.8,30,0.00,CLR,,0.00,WeatherDisplay:10.37,2013-08-14 15:33:00,
2013-08-14 10:35:00,72.5,39.3,29.35,WSW,248,2.3,2.3,30,0.00,CLR,,0.00,WeatherDisplay:10.37,2013-08-14 15:35:00,
2013-08-14 10:36:00,72.7,40.3,29.35,SSW,202,1.1,1.1,31,0.00,CLR,,0.00,WeatherDisplay:10.37,2013-08-14 15:36:00,
2013-08-14 10:38:00,72.7,39.4,29.35,North,0,4.6,4.6,30,0.00,CLR,,0.00,WeatherDisplay:10.37,2013-08-14 15:38:00,
2013-08-14 10:39:00,72.5,37.5,29.35,ENE,68,5.9,5.9,28,0.00,CLR,,0.00,WeatherDisplay:10.37,2013-08-14 15:39:00,
2013-08-14 10:41:00,72.1,36.3,29.35,West,270,5.8,5.8,27,0.00,CLR,,0.00,WeatherDisplay:10.37,2013-08-14 15:41:00,
2013-08-14 10:43:00,72.3,37.4,29.35,West,270,5.8,5.8,28,0.00,CLR,,0.00,WeatherDisplay:10.37,2013-08-14 15:43:00,
2013-08-14 10:44:00,72.3,36.4,29.35,WNW,292,4.6,4.6,27,0.00,CLR,,0.00,WeatherDisplay:10.37,2013-08-14 15:44:00,
2013-08-14 10:45:00,72.5,35.6,29.35,WSW,248,4.6,4.6,26,0.00,CLR,,0.00,WeatherDisplay:10.37,2013-08-14 15:45:00,
2013-08-14 10:46:00,72.7,37.7,29.35,WNW,292,3.5,3.5,28,0.00,CLR,,0.00,WeatherDisplay:10.37,2013-08-14 15:46:00,
2013-08-14 10:48:00,72.9,38.7,29.35,North,0,3.6,0.0,29,0.00,CLR,,0.00,WeatherDisplay:10.37,2013-08-14 15:48:00,
2013-08-14 10:49:00,72.7,37.7,29.35,NW,304,3.0,0.0,28,0.00,CLR,,0.00,WeatherDisplay:10.37,2013-08-14 15:49:00,
2013-08-14 10:50:00,72.9,37.8,29.35,NNE,22,8.1,8.1,28,0.00,CLR,,0.00,WeatherDisplay:10.37,2013-08-14 15:50:00,
2013-08-14 10:51:00,72.9,37.8,29.35,SE,135,6.9,6.9,28,0.00,CLR,,0.00,WeatherDisplay:10.37,2013-08-14 15:51:00,
2013-08-14 10:54:00,72.7,36.8,29.35,ENE,68,4.6,4.6,27,0.00,CLR,,0.00,WeatherDisplay:10.37,2013-08-14 15:54:00,
2013-08-14 10:56:00,72.7,36.8,29.35,NNE,22,2.3,2.3,27,0.00,CLR,,0.00,WeatherDisplay:10.37,2013-08-14 15:56:00,
2013-08-14 10:57:00,72.9,38.7,29.35,SSW,202,2.3,2.3,29,0.00,CLR,,0.00,WeatherDisplay:10.37,2013-08-14 15:57:00,
2013-08-14 10:59:00,73.2,40.8,29.35,North,0,3.5,3.5,31,0.00,CLR,,0.00,WeatherDisplay:10.37,2013-08-14 15:59:00,
2013-08-14 11:00:00,73.2,39.9,29.35,ENE,68,4.9,4.9,30,0.00,CLR,,0.00,WeatherDisplay:10.37,2013-08-14 16:00:00,
2013-08-14 11:02:00,73.2,37.2,29.35,NNW,338,5.8,5.8,27,0.00,CLR,,0.00,WeatherDisplay:10.37,2013-08-14 16:02:00,
2013-08-14 11:04:00,73.2,36.3,29.35,North,10,3.0,0.0,26,0.00,CLR,,0.00,WeatherDisplay:10.37,2013-08-14 16:04:00,
2013-08-14 11:05:00,73.2,36.3,29.35,North,0,3.5,3.5,26,0.00,CLR,,0.00,WeatherDisplay:10.37,2013-08-14 16:05:00,
2013-08-14 11:06:00,73.2,36.3,29.35,East,90,2.3,2.3,26,0.00,CLR,,0.00,WeatherDisplay:10.37,2013-08-14 16:06:00,
2013-08-14 11:08:00,73.4,36.4,29.35,West,270,5.9,5.9,26,0.00,CLR,,0.00,WeatherDisplay:10.37,2013-08-14 16:08:00,
2013-08-14 11:10:00,73.6,36.6,29.35,NW,315,4.6,4.6,26,0.00,CLR,,0.00,WeatherDisplay:10.37,2013-08-14 16:10:00,
2013-08-14 11:11:00,73.9,39.7,29.35,WNW,292,2.4,2.4,29,0.00,CLR,,0.00,WeatherDisplay:10.37,2013-08-14 16:11:00,
2013-08-14 11:13:00,74.5,40.1,29.35,West,270,7.6,7.6,29,0.00,CLR,,0.00,WeatherDisplay:10.37,2013-08-14 16:13:00,
2013-08-14 11:14:00,74.5,36.3,29.35,WSW,248,8.1,8.1,25,0.00,CLR,,0.00,WeatherDisplay:10.37,2013-08-14 16:14:00,
2013-08-14 11:15:00,74.5,36.3,29.35,NW,315,6.9,6.9,25,0.00,CLR,,0.00,WeatherDisplay:10.37,2013-08-14 16:15:00,
2013-08-14 11:16:00,74.5,37.3,29.35,NNE,22,3.5,3.5,26,0.00,CLR,,0.00,WeatherDisplay:10.37,2013-08-14 16:16:00,
2013-08-14 11:18:00,74.3,34.1,29.35,NW,315,4.6,4.6,23,0.00,CLR,,0.00,WeatherDisplay:10.37,2013-08-14 16:18:00,
2013-08-14 11:19:00,74.5,36.3,29.35,ENE,68,2.9,2.9,25,0.00,CLR,,0.00,WeatherDisplay:10.37,2013-08-14 16:19:00,
2013-08-14 11:23:00,74.5,35.3,29.35,North,0,3.5,3.5,24,0.00,CLR,,0.00,WeatherDisplay:10.37,2013-08-14 16:23:00,
2013-08-14 11:24:00,74.3,34.1,29.35,NNE,22,4.6,4.6,23,0.00,CLR,,0.00,WeatherDisplay:10.37,2013-08-14 16:24:00,
2013-08-14 11:25:00,74.1,35.0,29.35,NE,45,3.5,3.5,24,0.00,CLR,,0.00,WeatherDisplay:10.37,2013-08-14 16:25:00,
2013-08-14 11:27:00,73.9,33.8,29.32,NNW,338,1.4,1.4,23,0.00,CLR,,0.00,WeatherDisplay:10.37,2013-08-14 16:27:00,
2013-08-14 11:29:00,73.9,32.7,29.32,NNW,338,6.4,6.4,22,0.00,CLR,,0.00,WeatherDisplay:10.37,2013-08-14 16:29:00,
2013-08-14 11:30:00,73.9,32.7,29.32,ENE,68,6.9,6.9,22,0.00,CLR,,0.00,WeatherDisplay:10.37,2013-08-14 16:30:00,
2013-08-14 11:34:00,74.1,32.8,29.32,NNE,22,4.6,4.6,22,0.00,CLR,,0.00,WeatherDisplay:10.37,2013-08-14 16:34:00,
2013-08-14 11:35:00,73.9,32.7,29.32,NW,315,7.4,7.4,22,0.00,CLR,,0.00,WeatherDisplay:10.37,2013-08-14 16:35:00,
2013-08-14 11:36:00,73.9,32.7,29.32,West,270,8.1,8.1,22,0.00,CLR,,0.00,WeatherDisplay:10.37,2013-08-14 16:36:00,
2013-08-14 11:37:00,74.1,32.8,29.32,North,0,5.8,5.8,22,0.00,CLR,,0.00,WeatherDisplay:10.37,2013-08-14 16:37:00,
2013-08-14 11:39:00,73.9,32.7,29.32,NW,315,8.1,8.1,22,0.00,CLR,,0.00,WeatherDisplay:10.37,2013-08-14 16:39:00,
2013-08-14 11:40:00,73.9,31.5,29.32,NNE,22,4.6,4.6,21,0.00,CLR,,0.00,WeatherDisplay:10.37,2013-08-14 16:40:00,
2013-08-14 11:41:00,73.9,31.5,29.32,ENE,68,4.6,4.6,21,0.00,CLR,,0.00,WeatherDisplay:10.37,2013-08-14 16:41:00,
2013-08-14 11:44:00,74.3,31.8,29.35,East,90,3.5,3.5,21,0.00,CLR,,0.00,WeatherDisplay:10.37,2013-08-14 16:44:00,
2013-08-14 11:46:00,74.1,31.7,29.35,ENE,68,11.5,11.5,21,0.00,CLR,,0.00,WeatherDisplay:10.37,2013-08-14 16:46:00,
2013-08-14 11:47:00,74.1,31.7,29.35,NNE,22,11.5,11.5,21,0.00,CLR,,0.00,WeatherDisplay:10.37,2013-08-14 16:47:00,
2013-08-14 11:49:00,73.9,31.5,29.35,NNE,14,2.0,0.0,21,0.00,CLR,,0.00,WeatherDisplay:10.37,2013-08-14 16:49:00,
2013-08-14 11:50:00,73.9,31.5,29.35,North,0,3.5,3.5,21,0.00,CLR,,0.00,WeatherDisplay:10.37,2013-08-14 16:50:00,
2013-08-14 11:52:00,73.9,31.5,29.35,NNE,22,7.6,7.6,21,0.00,CLR,,0.00,WeatherDisplay:10.37,2013-08-14 16:52:00,
2013-08-14 11:54:00,74.2,31.7,29.35,North,6,5.0,0.0,21,0.00,CLR,,0.00,WeatherDisplay:10.37,2013-08-14 16:54:00,
2013-08-14 11:55:00,74.1,31.7,29.35,North,0,4.6,4.6,21,0.00,CLR,,0.00,WeatherDisplay:10.37,2013-08-14 16:55:00,
2013-08-14 11:57:00,74.1,31.7,29.32,North,0,3.6,4.0,21,0.00,CLR,,0.00,WeatherDisplay:10.37,2013-08-14 16:57:00,
2013-08-14 12:00:00,74.1,31.7,29.32,NNE,16,3.0,0.0,21,0.00,CLR,,0.00,WeatherDisplay:10.37,2013-08-14 17:00:00,
2013-08-14 12:03:00,73.9,31.5,29.32,ENE,68,3.6,3.6,21,0.00,CLR,,0.00,WeatherDisplay:10.37,2013-08-14 17:03:00,
2013-08-14 12:04:00,73.9,31.5,29.32,NNE,22,5.8,5.8,21,0.00,CLR,,0.00,WeatherDisplay:10.37,2013-08-14 17:04:00,
2013-08-14 12:07:00,73.9,31.5,29.32,North,0,5.8,5.8,21,0.00,CLR,,0.00,WeatherDisplay:10.37,2013-08-14 17:07:00,
2013-08-14 12:08:00,74.1,31.7,29.32,North,0,5.8,5.8,21,0.00,CLR,,0.00,WeatherDisplay:10.37,2013-08-14 17:08:00,
2013-08-14 12:09:00,74.1,31.7,29.32,NNE,23,2.0,0.0,21,0.00,CLR,,0.00,WeatherDisplay:10.37,2013-08-14 17:09:00,
2013-08-14 12:11:00,73.8,27.6,29.32,NNW,338,8.1,8.1,18,0.00,CLR,,0.00,WeatherDisplay:10.37,2013-08-14 17:11:00,
2013-08-14 12:13:00,73.4,27.3,29.32,NW,315,4.6,4.6,18,0.00,CLR,,0.00,WeatherDisplay:10.37,2013-08-14 17:13:00,
2013-08-14 12:16:00,73.2,30.9,29.32,North,0,4.3,4.3,21,0.00,CLR,,0.00,WeatherDisplay:10.37,2013-08-14 17:16:00,
2013-08-14 12:18:00,73.6,31.2,29.32,WNW,292,2.3,2.3,21,0.00,CLR,,0.00,WeatherDisplay:10.37,2013-08-14 17:18:00,
2013-08-14 12:19:00,73.8,31.4,29.32,NNW,338,3.5,3.5,21,0.00,CLR,,0.00,WeatherDisplay:10.37,2013-08-14 17:19:00,
2013-08-14 12:24:00,74.5,28.2,29.32,ENE,68,9.2,9.2,18,0.00,CLR,,0.00,WeatherDisplay:10.37,2013-08-14 17:24:00,
2013-08-14 12:25:00,74.5,28.2,29.32,NNE,31,6.0,0.0,18,0.00,CLR,,0.00,WeatherDisplay:10.37,2013-08-14 17:25:00,
2013-08-14 12:26:00,74.5,28.2,29.35,NNW,338,4.6,4.6,18,0.00,CLR,,0.00,WeatherDisplay:10.37,2013-08-14 17:26:00,
2013-08-14 12:29:00,74.6,29.6,29.35,NNE,31,1.0,0.0,19,0.00,CLR,,0.00,WeatherDisplay:10.37,2013-08-14 17:29:00,
2013-08-14 12:30:00,74.7,32.1,29.35,West,270,3.5,3.5,21,0.00,CLR,,0.00,WeatherDisplay:10.37,2013-08-14 17:30:00,
2013-08-14 12:31:00,74.5,28.2,29.35,NNE,22,5.8,5.8,18,0.00,CLR,,0.00,WeatherDisplay:10.37,2013-08-14 17:31:00,
2013-08-14 12:32:00,74.5,28.2,29.35,ENE,68,5.8,5.8,18,0.00,CLR,,0.00,WeatherDisplay:10.37,2013-08-14 17:32:00,
2013-08-14 12:36:00,74.1,27.9,29.35,NNE,22,5.8,5.8,18,0.00,CLR,,0.00,WeatherDisplay:10.37,2013-08-14 17:36:00,
2013-08-14 12:38:00,74.3,31.8,29.35,North,0,2.4,2.4,21,0.00,CLR,,0.00,WeatherDisplay:10.37,2013-08-14 17:38:00,
2013-08-14 12:40:00,74.5,32.0,29.35,WNW,292,4.0,4.0,21,0.00,CLR,,0.00,WeatherDisplay:10.37,2013-08-14 17:40:00,
2013-08-14 12:43:00,75.2,31.3,29.29,ENE,68,2.3,2.3,20,0.00,CLR,,0.00,WeatherDisplay:10.37,2013-08-14 17:43:00,
2013-08-14 12:45:00,75.2,28.8,29.29,NNW,338,4.3,4.3,18,0.00,CLR,,0.00,WeatherDisplay:10.37,2013-08-14 17:45:00,
2013-08-14 12:47:00,75.2,28.8,29.29,NNE,22,6.9,6.9,18,0.00,CLR,,0.00,WeatherDisplay:10.37,2013-08-14 17:47:00,
2013-08-14 12:48:00,74.7,28.3,29.29,NNE,22,10.4,10.4,18,0.00,CLR,,0.00,WeatherDisplay:10.37,2013-08-14 17:48:00,
2013-08-14 12:49:00,74.8,28.5,29.29,ENE,68,5.8,5.8,18,0.00,CLR,,0.00,WeatherDisplay:10.37,2013-08-14 17:49:00,
2013-08-14 12:50:00,74.8,32.3,29.29,North,0,4.6,4.6,21,0.00,CLR,,0.00,WeatherDisplay:10.37,2013-08-14 17:50:00,
2013-08-14 12:53:00,75.2,31.3,29.29,North,0,4.6,4.6,20,0.00,CLR,,0.00,WeatherDisplay:10.37,2013-08-14 17:53:00,
2013-08-14 12:54:00,75.2,31.3,29.29,NNW,338,3.5,3.5,20,0.00,CLR,,0.00,WeatherDisplay:10.37,2013-08-14 17:54:00,
2013-08-14 12:55:00,75.4,31.5,29.29,East,90,3.5,3.5,20,0.00,CLR,,0.00,WeatherDisplay:10.37,2013-08-14 17:55:00,
2013-08-14 12:56:00,75.4,31.5,29.29,East,90,3.5,3.5,20,0.00,CLR,,0.00,WeatherDisplay:10.37,2013-08-14 17:56:00,
2013-08-14 12:59:00,75.4,28.9,29.32,East,90,6.2,6.2,18,0.00,CLR,,0.00,WeatherDisplay:10.37,2013-08-14 17:59:00,
2013-08-14 13:00:00,75.0,28.6,29.32,ENE,68,6.9,6.9,18,0.00,CLR,,0.00,WeatherDisplay:10.37,2013-08-14 18:00:00,
2013-08-14 13:01:00,75.0,28.6,29.32,NNW,338,6.0,6.0,18,0.00,CLR,,0.00,WeatherDisplay:10.37,2013-08-14 18:01:00,
2013-08-14 13:04:00,75.7,31.8,29.32,NW,315,5.8,5.8,20,0.00,CLR,,0.00,WeatherDisplay:10.37,2013-08-14 18:04:00,
2013-08-14 13:05:00,75.7,31.8,29.32,WNW,292,5.8,5.8,20,0.00,CLR,,0.00,WeatherDisplay:10.37,2013-08-14 18:05:00,
2013-08-14 13:07:00,76.1,29.5,29.32,WNW,292,5.8,5.8,18,0.00,CLR,,0.00,WeatherDisplay:10.37,2013-08-14 18:07:00,
2013-08-14 13:09:00,76.4,31.1,29.32,NW,310,3.0,0.0,19,0.00,CLR,,0.00,WeatherDisplay:10.37,2013-08-14 18:09:00,
2013-08-14 13:11:00,76.5,29.8,29.32,ESE,112,5.8,5.8,18,0.00,CLR,,0.00,WeatherDisplay:10.37,2013-08-14 18:11:00,
2013-08-14 13:15:00,76.1,28.1,29.32,NNW,337,3.0,0.0,17,0.00,CLR,,0.00,WeatherDisplay:10.37,2013-08-14 18:15:00,
2013-08-14 13:17:00,75.7,24.8,29.32,WSW,248,3.5,3.5,15,0.00,CLR,,0.00,WeatherDisplay:10.37,2013-08-14 18:17:00,
2013-08-14 13:18:00,75.6,24.6,29.32,ENE,68,3.5,3.5,15,0.00,CLR,,0.00,WeatherDisplay:10.37,2013-08-14 18:18:00,
2013-08-14 13:23:00,75.6,29.0,29.32,North,0,3.5,3.5,18,0.00,CLR,,0.00,WeatherDisplay:10.37,2013-08-14 18:23:00,
2013-08-14 13:24:00,75.6,29.0,29.32,East,90,4.7,4.7,18,0.00,CLR,,0.00,WeatherDisplay:10.37,2013-08-14 18:24:00,
2013-08-14 13:26:00,75.7,24.8,29.32,North,0,5.8,5.8,15,0.00,CLR,,0.00,WeatherDisplay:10.37,2013-08-14 18:26:00,
2013-08-14 13:29:00,76.1,29.5,29.32,NE,45,4.3,4.3,18,0.00,CLR,,0.00,WeatherDisplay:10.37,2013-08-14 18:29:00,
2013-08-14 13:30:00,76.1,25.1,29.32,North,0,4.6,5.4,15,0.00,CLR,,0.00,WeatherDisplay:10.37,2013-08-14 18:30:00,
2013-08-14 13:31:00,76.1,25.1,29.32,NNE,22,5.8,5.8,15,0.00,CLR,,0.00,WeatherDisplay:10.37,2013-08-14 18:31:00,
2013-08-14 13:34:00,76.1,26.6,29.32,NNE,32,3.0,0.0,16,0.00,CLR,,0.00,WeatherDisplay:10.37,2013-08-14 18:34:00,
2013-08-14 13:37:00,75.9,24.9,29.32,ENE,68,8.1,8.1,15,0.00,CLR,,0.00,WeatherDisplay:10.37,2013-08-14 18:37:00,
2013-08-14 13:38:00,76.1,25.1,29.32,NE,45,8.1,8.1,15,0.00,CLR,,0.00,WeatherDisplay:10.37,2013-08-14 18:38:00,
2013-08-14 13:39:00,75.7,24.8,29.32,ENE,68,9.2,9.2,15,0.00,CLR,,0.00,WeatherDisplay:10.37,2013-08-14 18:39:00,
2013-08-14 13:41:00,75.7,24.8,29.32,NE,45,6.9,6.9,15,0.00,CLR,,0.00,WeatherDisplay:10.37,2013-08-14 18:41:00,
2013-08-14 13:43:00,75.9,24.9,29.32,NE,45,5.8,5.8,15,0.00,CLR,,0.00,WeatherDisplay:10.37,2013-08-14 18:43:00,
2013-08-14 13:47:00,76.5,25.3,29.32,WNW,292,5.8,5.8,15,0.00,CLR,,0.00,WeatherDisplay:10.37,2013-08-14 18:47:00,
2013-08-14 13:48:00,76.6,25.5,29.32,West,270,3.5,3.5,15,0.00,CLR,,0.00,WeatherDisplay:10.37,2013-08-14 18:48:00,
2013-08-14 13:50:00,76.8,25.6,29.32,North,1,2.0,0.0,15,0.00,CLR,,0.00,WeatherDisplay:10.37,2013-08-14 18:50:00,
2013-08-14 13:53:00,76.5,25.3,29.32,North,0,5.8,5.8,15,0.00,CLR,,0.00,WeatherDisplay:10.37,2013-08-14 18:53:00,
2013-08-14 13:54:00,76.5,25.3,29.32,East,90,4.0,4.0,15,0.00,CLR,,0.00,WeatherDisplay:10.37,2013-08-14 18:54:00,
2013-08-14 13:55:00,76.5,25.3,29.32,NNW,338,4.9,4.9,15,0.00,CLR,,0.00,WeatherDisplay:10.37,2013-08-14 18:55:00,
2013-08-14 13:56:00,76.3,25.2,29.32,NNW,338,4.6,4.6,15,0.00,CLR,,0.00,WeatherDisplay:10.37,2013-08-14 18:56:00,
2013-08-14 13:59:00,75.9,24.9,29.32,North,0,3.5,3.5,15,0.00,CLR,,0.00,WeatherDisplay:10.37,2013-08-14 18:59:00,
2013-08-14 14:02:00,75.7,24.8,29.32,ENE,68,3.6,3.6,15,0.00,CLR,,0.00,WeatherDisplay:10.37,2013-08-14 19:02:00,
2013-08-14 14:03:00,75.7,24.8,29.32,East,90,3.5,4.3,15,0.00,CLR,,0.00,WeatherDisplay:10.37,2013-08-14 19:03:00,
2013-08-14 14:04:00,75.7,24.8,29.32,NE,45,4.6,4.6,15,0.00,CLR,,0.00,WeatherDisplay:10.37,2013-08-14 19:04:00,
2013-08-14 14:06:00,75.4,24.5,29.32,NNW,338,6.9,6.9,15,0.00,CLR,,0.00,WeatherDisplay:10.37,2013-08-14 19:06:00,
2013-08-14 14:12:00,74.8,25.6,29.32,NW,315,5.8,5.8,16,0.00,CLR,,0.00,WeatherDisplay:10.37,2013-08-14 19:12:00,
2013-08-14 14:13:00,75.0,25.7,29.32,NW,315,5.4,5.4,16,0.00,CLR,,0.00,WeatherDisplay:10.37,2013-08-14 19:13:00,
2013-08-14 14:14:00,75.2,24.3,29.32,WNW,292,5.8,5.8,15,0.00,CLR,,0.00,WeatherDisplay:10.37,2013-08-14 19:14:00,
2013-08-14 14:17:00,75.2,24.3,29.32,NE,45,6.9,6.9,15,0.00,CLR,,0.00,WeatherDisplay:10.37,2013-08-14 19:17:00,
2013-08-14 14:19:00,74.7,25.5,29.32,East,90,10.4,10.4,16,0.00,CLR,,0.00,WeatherDisplay:10.37,2013-08-14 19:19:00,
2013-08-14 14:20:00,74.8,25.6,29.32,NE,45,9.2,9.2,16,0.00,CLR,,0.00,WeatherDisplay:10.37,2013-08-14 19:20:00,
2013-08-14 14:22:00,74.7,25.5,29.32,ENE,68,8.1,8.1,16,0.00,CLR,,0.00,WeatherDisplay:10.37,2013-08-14 19:22:00,
2013-08-14 14:24:00,75.0,25.7,29.32,ENE,68,5.8,5.8,16,0.00,CLR,,0.00,WeatherDisplay:10.37,2013-08-14 19:24:00,
2013-08-14 14:26:00,75.0,25.7,29.32,North,0,5.6,5.6,16,0.00,CLR,,0.00,WeatherDisplay:10.37,2013-08-14 19:26:00,
2013-08-14 14:27:00,75.0,25.7,29.32,ESE,112,6.9,6.9,16,0.00,CLR,,0.00,WeatherDisplay:10.37,2013-08-14 19:27:00,
2013-08-14 14:29:00,75.4,24.5,29.32,ENE,70,3.0,0.0,15,0.00,CLR,,0.00,WeatherDisplay:10.37,2013-08-14 19:29:00,
2013-08-14 14:32:00,75.7,24.8,29.32,NNW,338,4.6,4.6,15,0.00,CLR,,0.00,WeatherDisplay:10.37,2013-08-14 19:32:00,
2013-08-14 14:35:00,75.9,24.9,29.32,NE,54,3.0,0.0,15,0.00,CLR,,0.00,WeatherDisplay:10.37,2013-08-14 19:35:00,
2013-08-14 14:36:00,76.1,25.1,29.32,West,270,5.8,5.8,15,0.00,CLR,,0.00,WeatherDisplay:10.37,2013-08-14 19:36:00,
2013-08-14 14:38:00,76.6,25.5,29.32,West,270,4.7,4.7,15,0.00,CLR,,0.00,WeatherDisplay:10.37,2013-08-14 19:38:00,
2013-08-14 14:39:00,77.0,25.8,29.32,West,270,4.6,4.6,15,0.00,CLR,,0.00,WeatherDisplay:10.37,2013-08-14 19:39:00,
2013-08-14 14:40:00,77.0,25.8,29.32,North,0,4.0,6.7,15,0.00,CLR,,0.00,WeatherDisplay:10.37,2013-08-14 19:40:00,
2013-08-14 14:41:00,77.2,30.4,29.32,East,90,9.2,9.2,18,0.00,CLR,,0.00,WeatherDisplay:10.37,2013-08-14 19:41:00,
2013-08-14 14:44:00,77.4,26.1,29.29,NE,45,6.4,6.4,15,0.00,CLR,,0.00,WeatherDisplay:10.37,2013-08-14 19:44:00,
2013-08-14 14:45:00,77.5,26.2,29.29,NNW,338,6.9,6.9,15,0.00,CLR,,0.00,WeatherDisplay:10.37,2013-08-14 19:45:00,
2013-08-14 14:47:00,77.5,26.2,29.29,WNW,292,6.9,6.9,15,0.00,CLR,,0.00,WeatherDisplay:10.37,2013-08-14 19:47:00,
2013-08-14 14:52:00,77.0,25.8,29.29,NNE,22,4.6,4.6,15,0.00,CLR,,0.00,WeatherDisplay:10.37,2013-08-14 19:52:00,
2013-08-14 14:54:00,76.7,28.6,29.29,NNE,17,3.0,0.0,17,0.00,CLR,,0.00,WeatherDisplay:10.37,2013-08-14 19:54:00,
2013-08-14 14:55:00,76.5,25.3,29.29,NNE,22,6.9,6.9,15,0.00,CLR,,0.00,WeatherDisplay:10.37,2013-08-14 19:55:00,
2013-08-14 14:57:00,76.1,25.1,29.29,NNW,338,5.8,5.8,15,0.00,CLR,,0.00,WeatherDisplay:10.37,2013-08-14 19:57:00,
2013-08-14 14:58:00,76.1,29.5,29.29,NNW,338,2.3,2.3,18,0.00,CLR,,0.00,WeatherDisplay:10.37,2013-08-14 19:58:00,
2013-08-14 15:01:00,75.7,29.2,29.29,ENE,68,4.9,4.9,18,0.00,CLR,,0.00,WeatherDisplay:10.37,2013-08-14 20:01:00,
2013-08-14 15:02:00,75.6,24.6,29.29,NNE,22,4.6,4.6,15,0.00,CLR,,0.00,WeatherDisplay:10.37,2013-08-14 20:02:00,
2013-08-14 15:03:00,75.4,24.5,29.29,ENE,68,2.3,2.4,15,0.00,CLR,,0.00,WeatherDisplay:10.37,2013-08-14 20:03:00,
2013-08-14 15:05:00,75.2,24.3,29.29,NE,41,2.0,0.0,15,0.00,CLR,,0.00,WeatherDisplay:10.37,2013-08-14 20:05:00,
2013-08-14 15:07:00,75.4,24.5,29.29,ESE,112,4.6,4.6,15,0.00,CLR,,0.00,WeatherDisplay:10.37,2013-08-14 20:07:00,
2013-08-14 15:08:00,75.4,24.5,29.29,ESE,112,3.5,3.5,15,0.00,CLR,,0.00,WeatherDisplay:10.37,2013-08-14 20:08:00,
2013-08-14 15:11:00,75.6,24.6,29.29,SE,135,5.6,5.6,15,0.00,CLR,,0.00,WeatherDisplay:10.37,2013-08-14 20:11:00,
2013-08-14 15:12:00,75.9,24.9,29.29,NNW,338,5.8,5.8,15,0.00,CLR,,0.00,WeatherDisplay:10.37,2013-08-14 20:12:00,
2013-08-14 15:13:00,75.7,24.8,29.29,ENE,68,3.5,3.5,15,0.00,CLR,,0.00,WeatherDisplay:10.37,2013-08-14 20:13:00,
2013-08-14 15:14:00,75.9,24.9,29.29,SE,135,3.5,3.5,15,0.00,CLR,,0.00,WeatherDisplay:10.37,2013-08-14 20:14:00,
2013-08-14 15:15:00,75.7,24.8,29.29,North,0,4.6,4.6,15,0.00,CLR,,0.00,WeatherDisplay:10.37,2013-08-14 20:15:00,
2013-08-14 15:16:00,75.7,24.8,29.29,North,0,4.6,4.6,15,0.00,CLR,,0.00,WeatherDisplay:10.37,2013-08-14 20:16:00,
2013-08-14 15:18:00,75.7,24.8,29.29,NE,45,2.3,2.3,15,0.00,CLR,,0.00,WeatherDisplay:10.37,2013-08-14 20:18:00,
2013-08-14 15:21:00,75.9,29.3,29.29,NNW,338,5.8,5.8,18,0.00,CLR,,0.00,WeatherDisplay:10.37,2013-08-14 20:21:00,
2013-08-14 15:23:00,75.9,29.3,29.29,North,0,4.6,4.6,18,0.00,CLR,,0.00,WeatherDisplay:10.37,2013-08-14 20:23:00,
2013-08-14 15:25:00,76.1,29.5,29.29,NW,315,6.9,6.9,18,0.00,CLR,,0.00,WeatherDisplay:10.37,2013-08-14 20:25:00,
2013-08-14 15:26:00,76.3,29.6,29.26,WNW,292,5.8,5.8,18,0.00,CLR,,0.00,WeatherDisplay:10.37,2013-08-14 20:26:00,
2013-08-14 15:27:00,59.7,40.0,29.25,South,175,1.0,0.0,48,0.00,CLR,,0.00,WeatherDisplay:10.37,2013-08-14 20:27:00,
2013-08-14 15:28:00,76.3,29.6,29.26,NNE,22,6.9,6.9,18,0.00,CLR,,0.00,WeatherDisplay:10.37,2013-08-14 20:28:00,
2013-08-14 15:29:00,59.7,40.0,29.25,South,175,1.0,0.0,48,0.00,CLR,,0.00,WeatherDisplay:10.37,2013-08-14 20:29:00,
2013-08-14 15:30:00,59.7,40.0,29.25,South,175,1.0,0.0,48,0.00,CLR,,0.00,WeatherDisplay:10.37,2013-08-14 20:30:00,
2013-08-14 15:31:00,76.6,32.5,29.26,NNW,338,6.4,6.4,20,0.00,CLR,,0.00,WeatherDisplay:10.37,2013-08-14 20:31:00,
2013-08-14 15:33:00,76.6,25.5,29.26,North,0,5.8,5.8,15,0.00,CLR,,0.00,WeatherDisplay:10.37,2013-08-14 20:33:00,
2013-08-14 15:34:00,76.8,30.1,29.26,North,0,3.3,3.3,18,0.00,CLR,,0.00,WeatherDisplay:10.37,2013-08-14 20:34:00,
2013-08-14 15:36:00,76.8,30.1,29.26,NNW,338,4.6,4.6,18,0.00,CLR,,0.00,WeatherDisplay:10.37,2013-08-14 20:36:00,
2013-08-14 15:39:00,76.8,25.6,29.26,NW,315,5.8,5.8,15,0.00,CLR,,0.00,WeatherDisplay:10.37,2013-08-14 20:39:00,
2013-08-14 15:40:00,76.8,25.6,29.26,NW,315,5.8,5.8,15,0.00,CLR,,0.00,WeatherDisplay:10.37,2013-08-14 20:40:00,
2013-08-14 15:44:00,77.0,30.2,29.26,NNW,337,3.0,0.0,18,0.00,CLR,,0.00,WeatherDisplay:10.37,2013-08-14 20:44:00,
2013-08-14 15:45:00,77.0,25.8,29.26,WNW,292,3.5,3.5,15,0.00,CLR,,0.00,WeatherDisplay:10.37,2013-08-14 20:45:00,
2013-08-14 15:48:00,77.2,30.4,29.26,NE,45,8.1,8.1,18,0.00,CLR,,0.00,WeatherDisplay:10.37,2013-08-14 20:48:00,
2013-08-14 15:49:00,77.4,30.5,29.26,NE,45,7.1,7.1,18,0.00,CLR,,0.00,WeatherDisplay:10.37,2013-08-14 20:49:00,
2013-08-14 15:50:00,77.2,30.4,29.26,ENE,68,6.9,6.9,18,0.00,CLR,,0.00,WeatherDisplay:10.37,2013-08-14 20:50:00,
2013-08-14 15:53:00,76.8,25.6,29.26,NNE,22,6.9,6.9,15,0.00,CLR,,0.00,WeatherDisplay:10.37,2013-08-14 20:53:00,
2013-08-14 15:54:00,76.5,25.3,29.26,North,0,4.6,4.6,15,0.00,CLR,,0.00,WeatherDisplay:10.37,2013-08-14 20:54:00,
2013-08-14 15:55:00,76.5,25.3,29.26,NNW,338,6.9,6.9,15,0.00,CLR,,0.00,WeatherDisplay:10.37,2013-08-14 20:55:00,
2013-08-14 15:58:00,76.1,29.5,29.26,NNW,338,4.6,4.6,18,0.00,CLR,,0.00,WeatherDisplay:10.37,2013-08-14 20:58:00,
2013-08-14 15:59:00,75.9,29.3,29.26,ENE,68,5.8,5.8,18,0.00,CLR,,0.00,WeatherDisplay:10.37,2013-08-14 20:59:00,
2013-08-14 16:00:00,76.1,29.5,29.26,NE,45,5.8,5.8,18,0.00,CLR,,0.00,WeatherDisplay:10.37,2013-08-14 21:00:00,
2013-08-14 16:01:00,76.1,29.5,29.26,NNE,22,3.6,3.6,18,0.00,CLR,,0.00,WeatherDisplay:10.37,2013-08-14 21:01:00,
2013-08-14 16:03:00,76.1,29.5,29.26,NNE,22,4.6,4.6,18,0.00,CLR,,0.00,WeatherDisplay:10.37,2013-08-14 21:03:00,
2013-08-14 16:04:00,76.1,29.5,29.26,ENE,68,6.4,6.4,18,0.00,CLR,,0.00,WeatherDisplay:10.37,2013-08-14 21:04:00,
2013-08-14 16:05:00,76.1,29.5,29.26,ESE,112,6.9,6.9,18,0.00,CLR,,0.00,WeatherDisplay:10.37,2013-08-14 21:05:00,
2013-08-14 16:08:00,75.7,24.8,29.26,ESE,112,5.8,5.8,15,0.00,CLR,,0.00,WeatherDisplay:10.37,2013-08-14 21:08:00,
2013-08-14 16:09:00,75.7,24.8,29.26,ENE,68,5.8,5.8,15,0.00,CLR,,0.00,WeatherDisplay:10.37,2013-08-14 21:09:00,
2013-08-14 16:11:00,75.6,24.6,29.26,ENE,68,6.9,6.9,15,0.00,CLR,,0.00,WeatherDisplay:10.37,2013-08-14 21:11:00,
2013-08-14 16:13:00,75.2,24.3,29.26,NE,45,6.9,6.9,15,0.00,CLR,,0.00,WeatherDisplay:10.37,2013-08-14 21:13:00,
2013-08-14 16:14:00,75.2,24.3,29.26,East,90,5.8,5.8,15,0.00,CLR,,0.00,WeatherDisplay:10.37,2013-08-14 21:14:00,
2013-08-14 16:15:00,75.4,24.5,29.26,ENE,68,5.8,5.8,15,0.00,CLR,,0.00,WeatherDisplay:10.37,2013-08-14 21:15:00,
2013-08-14 16:18:00,75.2,24.3,29.26,ENE,68,4.6,4.6,15,0.00,CLR,,0.00,WeatherDisplay:10.37,2013-08-14 21:18:00,
2013-08-14 16:19:00,75.2,24.3,29.26,South,180,3.5,3.5,15,0.00,CLR,,0.00,WeatherDisplay:10.37,2013-08-14 21:19:00,
2013-08-14 16:20:00,75.4,24.5,29.26,South,180,3.8,3.8,15,0.00,CLR,,0.00,WeatherDisplay:10.37,2013-08-14 21:20:00,
2013-08-14 16:21:00,75.6,24.6,29.26,ENE,68,3.5,3.5,15,0.00,CLR,,0.00,WeatherDisplay:10.37,2013-08-14 21:21:00,
2013-08-14 16:24:00,75.9,24.9,29.26,ENE,68,3.5,3.5,15,0.00,CLR,,0.00,WeatherDisplay:10.37,2013-08-14 21:24:00,
2013-08-14 16:25:00,75.9,24.9,29.26,NNW,338,3.1,3.1,15,0.00,CLR,,0.00,WeatherDisplay:10.37,2013-08-14 21:25:00,
2013-08-14 16:26:00,75.9,24.9,29.26,SSE,158,3.5,3.5,15,0.00,CLR,,0.00,WeatherDisplay:10.37,2013-08-14 21:26:00,
2013-08-14 16:27:00,75.9,24.9,29.26,ENE,68,3.5,3.5,15,0.00,CLR,,0.00,WeatherDisplay:10.37,2013-08-14 21:27:00,
2013-08-14 16:30:00,76.1,25.1,29.26,NNE,22,4.7,4.7,15,0.00,CLR,,0.00,WeatherDisplay:10.37,2013-08-14 21:30:00,
2013-08-14 16:31:00,76.1,25.1,29.26,SSE,158,4.6,4.6,15,0.00,CLR,,0.00,WeatherDisplay:10.37,2013-08-14 21:31:00,
2013-08-14 16:35:00,76.1,25.1,29.26,North,0,5.8,5.8,15,0.00,CLR,,0.00,WeatherDisplay:10.37,2013-08-14 21:35:00,
2013-08-14 16:36:00,76.1,25.1,29.26,ENE,68,5.8,5.8,15,0.00,CLR,,0.00,WeatherDisplay:10.37,2013-08-14 21:36:00,
2013-08-14 16:39:00,76.3,25.2,29.26,NNW,338,2.6,2.6,15,0.00,CLR,,0.00,WeatherDisplay:10.37,2013-08-14 21:39:00,
2013-08-14 16:41:00,76.6,29.9,29.26,NW,315,4.6,4.6,18,0.00,CLR,,0.00,WeatherDisplay:10.37,2013-08-14 21:41:00,
2013-08-14 16:42:00,76.6,29.9,29.26,NNE,22,3.8,3.8,18,0.00,CLR,,0.00,WeatherDisplay:10.37,2013-08-14 21:42:00,
2013-08-14 16:43:00,76.8,30.1,29.26,North,0,4.3,4.3,18,0.00,CLR,,0.00,WeatherDisplay:10.37,2013-08-14 21:43:00,
2013-08-14 16:48:00,77.0,30.2,29.26,West,270,5.8,5.8,18,0.00,CLR,,0.00,WeatherDisplay:10.37,2013-08-14 21:48:00,
2013-08-14 16:49:00,76.8,30.1,29.26,NE,45,3.5,3.5,18,0.00,CLR,,0.00,WeatherDisplay:10.37,2013-08-14 21:49:00,
2013-08-14 16:51:00,76.8,30.1,29.26,NNW,338,3.5,3.5,18,0.00,CLR,,0.00,WeatherDisplay:10.37,2013-08-14 21:51:00,
2013-08-14 16:53:00,76.6,29.9,29.26,North,0,6.0,6.0,18,0.00,CLR,,0.00,WeatherDisplay:10.37,2013-08-14 21:53:00,
2013-08-14 16:54:00,76.5,29.8,29.26,NNW,338,6.2,6.2,18,0.00,CLR,,0.00,WeatherDisplay:10.37,2013-08-14 21:54:00,
2013-08-14 16:55:00,76.5,29.8,29.26,NNW,338,5.8,5.8,18,0.00,CLR,,0.00,WeatherDisplay:10.37,2013-08-14 21:55:00,
2013-08-14 16:56:00,76.3,25.2,29.26,South,180,5.8,5.8,15,0.00,CLR,,0.00,WeatherDisplay:10.37,2013-08-14 21:56:00,
2013-08-14 16:59:00,76.2,29.5,29.24,North,351,3.0,0.0,18,0.00,CLR,,0.00,WeatherDisplay:10.37,2013-08-14 21:59:00,
2013-08-14 17:01:00,75.7,29.2,29.24,NE,45,6.9,6.9,18,0.00,CLR,,0.00,WeatherDisplay:10.37,2013-08-14 22:01:00,
2013-08-14 17:02:00,75.7,29.2,29.24,NNW,338,5.8,5.8,18,0.00,CLR,,0.00,WeatherDisplay:10.37,2013-08-14 22:02:00,
2013-08-14 17:06:00,75.2,28.8,29.24,North,0,4.6,4.6,18,0.00,CLR,,0.00,WeatherDisplay:10.37,2013-08-14 22:06:00,
2013-08-14 17:07:00,75.4,28.9,29.24,North,0,4.6,4.6,18,0.00,CLR,,0.00,WeatherDisplay:10.37,2013-08-14 22:07:00,
2013-08-14 17:08:00,75.2,28.8,29.24,NNW,338,4.6,4.6,18,0.00,CLR,,0.00,WeatherDisplay:10.37,2013-08-14 22:08:00,
2013-08-14 17:10:00,75.0,28.6,29.24,NNW,338,3.5,3.5,18,0.00,CLR,,0.00,WeatherDisplay:10.37,2013-08-14 22:10:00,
2013-08-14 17:12:00,75.0,28.6,29.26,NNW,338,2.3,2.3,18,0.00,CLR,,0.00,WeatherDisplay:10.37,2013-08-14 22:12:00,
2013-08-14 17:13:00,75.2,28.8,29.26,East,90,4.7,0.0,18,0.00,CLR,,0.00,WeatherDisplay:10.37,2013-08-14 22:13:00,
2013-08-14 17:15:00,74.8,28.5,29.26,ENE,68,3.5,3.5,18,0.00,CLR,,0.00,WeatherDisplay:10.37,2013-08-14 22:15:00,
2013-08-14 17:17:00,74.8,28.5,29.26,ENE,68,5.8,5.8,18,0.00,CLR,,0.00,WeatherDisplay:10.37,2013-08-14 22:17:00,
2013-08-14 17:19:00,74.8,28.5,29.26,ENE,68,5.8,5.8,18,0.00,CLR,,0.00,WeatherDisplay:10.37,2013-08-14 22:19:00,
2013-08-14 17:22:00,74.7,28.3,29.26,NE,45,4.9,4.9,18,0.00,CLR,,0.00,WeatherDisplay:10.37,2013-08-14 22:22:00,
2013-08-14 17:23:00,74.7,28.3,29.26,NE,45,4.6,4.6,18,0.00,CLR,,0.00,WeatherDisplay:10.37,2013-08-14 22:23:00,
2013-08-14 17:24:00,74.7,28.3,29.26,NE,55,2.0,0.0,18,0.00,CLR,,0.00,WeatherDisplay:10.37,2013-08-14 22:24:00,
2013-08-14 17:26:00,74.7,28.3,29.26,East,90,3.5,3.5,18,0.00,CLR,,0.00,WeatherDisplay:10.37,2013-08-14 22:26:00,
2013-08-14 17:28:00,74.5,28.2,29.24,ENE,68,3.5,3.5,18,0.00,CLR,,0.00,WeatherDisplay:10.37,2013-08-14 22:28:00,
2013-08-14 17:30:00,74.3,28.0,29.24,NW,315,2.6,2.6,18,0.00,CLR,,0.00,WeatherDisplay:10.37,2013-08-14 22:30:00,
2013-08-14 17:33:00,74.1,27.9,29.24,ENE,68,3.5,3.5,18,0.00,CLR,,0.00,WeatherDisplay:10.37,2013-08-14 22:33:00,
2013-08-14 17:35:00,74.1,27.9,29.24,ENE,68,2.3,2.3,18,0.00,CLR,,0.00,WeatherDisplay:10.37,2013-08-14 22:35:00,
2013-08-14 17:36:00,74.3,28.0,29.24,NE,45,2.9,2.9,18,0.00,CLR,,0.00,WeatherDisplay:10.37,2013-08-14 22:36:00,
2013-08-14 17:40:00,74.3,31.8,29.24,NW,315,2.3,2.3,21,0.00,CLR,,0.00,WeatherDisplay:10.37,2013-08-14 22:40:00,
2013-08-14 17:41:00,74.3,28.0,29.24,ENE,68,2.9,2.9,18,0.00,CLR,,0.00,WeatherDisplay:10.37,2013-08-14 22:41:00,
2013-08-14 17:42:00,74.3,28.0,29.26,NE,45,2.3,2.3,18,0.00,CLR,,0.00,WeatherDisplay:10.37,2013-08-14 22:42:00,
2013-08-14 17:43:00,74.3,28.0,29.26,NE,45,0.0,0.0,18,0.00,CLR,,0.00,WeatherDisplay:10.37,2013-08-14 22:43:00,
2013-08-14 17:46:00,74.3,28.0,29.26,NNW,338,2.4,2.4,18,0.00,CLR,,0.00,WeatherDisplay:10.37,2013-08-14 22:46:00,
2013-08-14 17:47:00,74.1,27.9,29.26,NE,45,4.6,4.6,18,0.00,CLR,,0.00,WeatherDisplay:10.37,2013-08-14 22:47:00,
2013-08-14 17:48:00,74.1,27.9,29.26,NE,45,4.6,4.6,18,0.00,CLR,,0.00,WeatherDisplay:10.37,2013-08-14 22:48:00,
2013-08-14 17:49:00,74.1,27.9,29.26,NE,40,2.0,0.0,18,0.00,CLR,,0.00,WeatherDisplay:10.37,2013-08-14 22:49:00,
2013-08-14 17:53:00,74.1,27.9,29.26,East,90,2.3,2.3,18,0.00,CLR,,0.00,WeatherDisplay:10.37,2013-08-14 22:53:00,
2013-08-14 17:54:00,74.1,27.9,29.26,ENE,70,1.0,0.0,18,0.00,CLR,,0.00,WeatherDisplay:10.37,2013-08-14 22:54:00,
2013-08-14 17:55:00,74.1,27.9,29.26,WNW,292,2.0,0.0,18,0.00,CLR,,0.00,WeatherDisplay:10.37,2013-08-14 22:55:00,
2013-08-14 17:59:00,74.0,27.8,29.26,NNE,17,2.0,0.0,18,0.00,CLR,,0.00,WeatherDisplay:10.37,2013-08-14 22:59:00,
2013-08-14 18:00:00,73.9,27.7,29.26,North,0,2.4,2.4,18,0.00,CLR,,0.00,WeatherDisplay:10.37,2013-08-14 23:00:00,
2013-08-14 18:01:00,73.9,27.7,29.26,NNW,338,3.1,3.1,18,0.00,CLR,,0.00,WeatherDisplay:10.37,2013-08-14 23:01:00,
2013-08-14 18:02:00,58.8,41.2,29.26,SSE,156,2.0,0.0,52,0.00,CLR,,0.00,WeatherDisplay:10.37,2013-08-14 23:02:00,
2013-08-14 18:03:00,58.8,41.2,29.26,SSE,156,2.0,0.0,52,0.00,CLR,,0.00,WeatherDisplay:10.37,2013-08-14 23:03:00,
2013-08-14 18:04:00,58.8,41.2,29.26,SSE,156,2.0,0.0,52,0.00,CLR,,0.00,WeatherDisplay:10.37,2013-08-14 23:04:00,
2013-08-14 18:05:00,73.6,27.4,29.26,ENE,68,2.3,2.3,18,0.00,CLR,,0.00,WeatherDisplay:10.37,2013-08-14 23:05:00,
2013-08-14 18:06:00,73.6,27.4,29.26,North,0,2.3,2.3,18,0.00,CLR,,0.00,WeatherDisplay:10.37,2013-08-14 23:06:00,
2013-08-14 18:08:00,73.4,27.3,29.26,North,0,2.3,2.3,18,0.00,CLR,,0.00,WeatherDisplay:10.37,2013-08-14 23:08:00,
2013-08-14 18:09:00,73.4,27.3,29.26,NNW,338,2.3,2.3,18,0.00,CLR,,0.00,WeatherDisplay:10.37,2013-08-14 23:09:00,
2013-08-14 18:11:00,73.4,27.3,29.26,West,270,2.3,2.3,18,0.00,CLR,,0.00,WeatherDisplay:10.37,2013-08-14 23:11:00,
2013-08-14 18:12:00,73.4,27.3,29.26,WNW,292,2.3,2.3,18,0.00,CLR,,0.00,WeatherDisplay:10.37,2013-08-14 23:12:00,
2013-08-14 18:17:00,73.2,30.9,29.26,WNW,292,0.0,0.0,21,0.00,CLR,,0.00,WeatherDisplay:10.37,2013-08-14 23:17:00,
2013-08-14 18:18:00,73.2,30.9,29.26,West,270,0.0,0.0,21,0.00,CLR,,0.00,WeatherDisplay:10.37,2013-08-14 23:18:00,
2013-08-14 18:19:00,73.2,30.9,29.26,West,270,0.0,0.0,21,0.00,CLR,,0.00,WeatherDisplay:10.37,2013-08-14 23:19:00,
2013-08-14 18:22:00,73.0,28.3,29.26,West,270,0.0,0.0,19,0.00,CLR,,0.00,WeatherDisplay:10.37,2013-08-14 23:22:00,
2013-08-14 18:23:00,73.0,28.3,29.26,West,270,0.0,0.0,19,0.00,CLR,,0.00,WeatherDisplay:10.37,2013-08-14 23:23:00,
2013-08-14 18:24:00,73.0,30.8,29.26,West,270,0.0,0.0,21,0.00,CLR,,0.00,WeatherDisplay:10.37,2013-08-14 23:24:00,
2013-08-14 18:26:00,73.0,30.8,29.26,SSE,158,2.6,2.6,21,0.00,CLR,,0.00,WeatherDisplay:10.37,2013-08-14 23:26:00,
2013-08-14 18:28:00,73.0,30.8,29.26,SSE,158,2.3,2.3,21,0.00,CLR,,0.00,WeatherDisplay:10.37,2013-08-14 23:28:00,
2013-08-14 18:30:00,72.9,30.6,29.26,SSE,158,0.0,0.0,21,0.00,CLR,,0.00,WeatherDisplay:10.37,2013-08-14 23:30:00,
2013-08-14 18:32:00,72.9,31.8,29.26,SSE,158,1.1,0.0,22,0.00,CLR,,0.00,WeatherDisplay:10.37,2013-08-14 23:32:00,
2013-08-14 18:33:00,72.7,31.6,29.26,SSE,158,1.1,0.0,22,0.00,CLR,,0.00,WeatherDisplay:10.37,2013-08-14 23:33:00,
2013-08-14 18:34:00,72.7,31.6,29.26,SSE,160,0.0,0.0,22,0.00,CLR,,0.00,WeatherDisplay:10.37,2013-08-14 23:34:00,
2013-08-14 18:36:00,72.7,31.6,29.26,SSE,158,0.0,0.0,22,0.00,CLR,,0.00,WeatherDisplay:10.37,2013-08-14 23:36:00,
2013-08-14 18:38:00,72.5,31.5,29.26,SSE,158,0.0,0.0,22,0.00,CLR,,0.00,WeatherDisplay:10.37,2013-08-14 23:38:00,
2013-08-14 18:40:00,72.5,31.5,29.26,SSE,158,1.1,0.0,22,0.00,CLR,,0.00,WeatherDisplay:10.37,2013-08-14 23:40:00,
2013-08-14 18:41:00,72.5,31.5,29.26,SSE,158,1.1,0.0,22,0.00,CLR,,0.00,WeatherDisplay:10.37,2013-08-14 23:41:00,
2013-08-14 18:42:00,72.3,31.3,29.26,SSE,158,0.0,0.0,22,0.00,CLR,,0.00,WeatherDisplay:10.37,2013-08-14 23:42:00,
2013-08-14 18:44:00,72.3,31.3,29.26,SSE,158,0.0,0.0,22,0.00,CLR,,0.00,WeatherDisplay:10.37,2013-08-14 23:44:00,
2013-08-14 18:46:00,72.3,32.4,29.26,SSE,158,0.0,0.0,23,0.00,CLR,,0.00,WeatherDisplay:10.37,2013-08-14 23:46:00,
2013-08-14 18:48:00,72.1,32.3,29.26,SSE,158,0.0,0.0,23,0.00,CLR,,0.00,WeatherDisplay:10.37,2013-08-14 23:48:00,
2013-08-14 18:49:00,72.1,32.3,29.26,SSE,158,0.0,0.0,23,0.00,CLR,,0.00,WeatherDisplay:10.37,2013-08-14 23:49:00,
2013-08-14 18:50:00,72.0,32.1,29.26,SSE,158,0.0,0.0,23,0.00,CLR,,0.00,WeatherDisplay:10.37,2013-08-14 23:50:00,
2013-08-14 18:53:00,72.0,32.1,29.26,SSE,158,0.0,0.0,23,0.00,CLR,,0.00,WeatherDisplay:10.37,2013-08-14 23:53:00,
2013-08-14 18:54:00,71.8,33.0,29.26,SSE,158,0.0,0.0,24,0.00,CLR,,0.00,WeatherDisplay:10.37,2013-08-14 23:54:00,
2013-08-14 18:56:00,71.8,33.0,29.26,SSE,158,0.0,0.0,24,0.00,CLR,,0.00,WeatherDisplay:10.37,2013-08-14 23:56:00,
2013-08-14 18:57:00,71.8,33.0,29.24,SSE,158,0.0,0.0,24,0.00,CLR,,0.00,WeatherDisplay:10.37,2013-08-14 23:57:00,
2013-08-14 18:58:00,71.8,33.0,29.24,SSE,158,0.0,0.0,24,0.00,CLR,,0.00,WeatherDisplay:10.37,2013-08-14 23:58:00,
2013-08-14 18:59:00,71.6,32.9,29.24,SSE,158,0.0,0.0,24,0.00,CLR,,0.00,WeatherDisplay:10.37,2013-08-14 23:59:00,
2013-08-14 19:02:00,71.6,32.9,29.24,SSE,158,0.0,0.0,24,0.00,CLR,,0.00,WeatherDisplay:10.37,2013-08-15 00:02:00,
2013-08-14 19:04:00,71.4,33.7,29.24,SSE,158,0.0,0.0,25,0.00,CLR,,0.00,WeatherDisplay:10.37,2013-08-15 00:04:00,
2013-08-14 19:05:00,71.4,34.7,29.24,SSE,158,0.0,0.0,26,0.00,CLR,,0.00,WeatherDisplay:10.37,2013-08-15 00:05:00,
2013-08-14 19:06:00,71.4,33.7,29.24,SSE,158,0.0,0.0,25,0.00,CLR,,0.00,WeatherDisplay:10.37,2013-08-15 00:06:00,
2013-08-14 19:07:00,71.2,33.6,29.24,SSE,158,0.0,0.0,25,0.00,CLR,,0.00,WeatherDisplay:10.37,2013-08-15 00:07:00,
2013-08-14 19:08:00,71.2,33.6,29.24,SSE,158,0.0,0.0,25,0.00,CLR,,0.00,WeatherDisplay:10.37,2013-08-15 00:08:00,
2013-08-14 19:09:00,71.2,34.6,29.24,SSE,158,0.0,0.0,26,0.00,CLR,,0.00,WeatherDisplay:10.37,2013-08-15 00:09:00,
2013-08-14 19:11:00,71.1,34.4,29.24,SSE,158,0.0,0.0,26,0.00,CLR,,0.00,WeatherDisplay:10.37,2013-08-15 00:11:00,
2013-08-14 19:13:00,70.9,35.2,29.26,East,90,1.1,0.0,27,0.00,CLR,,0.00,WeatherDisplay:10.37,2013-08-15 00:13:00,
2013-08-14 19:14:00,70.9,35.2,29.26,East,90,1.1,0.0,27,0.00,CLR,,0.00,WeatherDisplay:10.37,2013-08-15 00:14:00,
2013-08-14 19:16:00,70.9,34.3,29.26,East,90,0.0,0.0,26,0.00,CLR,,0.00,WeatherDisplay:10.37,2013-08-15 00:16:00,
2013-08-14 19:17:00,70.7,36.0,29.26,East,90,0.0,0.0,28,0.00,CLR,,0.00,WeatherDisplay:10.37,2013-08-15 00:17:00,
2013-08-14 19:18:00,70.7,36.0,29.26,East,90,0.0,0.0,28,0.00,CLR,,0.00,WeatherDisplay:10.37,2013-08-15 00:18:00,
2013-08-14 19:19:00,70.7,35.1,29.26,East,99,0.0,0.0,27,0.00,CLR,,0.00,WeatherDisplay:10.37,2013-08-15 00:19:00,
2013-08-14 19:23:00,70.5,34.9,29.26,East,90,0.0,0.0,27,0.00,CLR,,0.00,WeatherDisplay:10.37,2013-08-15 00:23:00,
2013-08-14 19:27:00,70.2,36.4,29.26,East,90,0.0,0.0,29,0.00,CLR,,0.00,WeatherDisplay:10.37,2013-08-15 00:27:00,
2013-08-14 19:28:00,70.2,36.4,29.26,East,90,0.0,0.0,29,0.00,CLR,,0.00,WeatherDisplay:10.37,2013-08-15 00:28:00,
2013-08-14 19:29:00,70.2,36.4,29.26,East,90,0.0,0.0,29,0.00,CLR,,0.00,WeatherDisplay:10.37,2013-08-15 00:29:00,
2013-08-14 19:30:00,70.2,36.4,29.26,East,90,0.0,0.0,29,0.00,CLR,,0.00,WeatherDisplay:10.37,2013-08-15 00:30:00,
2013-08-14 19:33:00,69.8,38.6,29.26,East,90,0.0,0.0,32,0.00,CLR,,0.00,WeatherDisplay:10.37,2013-08-15 00:33:00,
2013-08-14 19:34:00,69.7,38.5,29.26,East,90,0.0,0.0,32,0.00,CLR,,0.00,WeatherDisplay:10.37,2013-08-15 00:34:00,
2013-08-14 19:35:00,69.6,38.4,29.26,East,90,0.0,0.0,32,0.00,CLR,,0.00,WeatherDisplay:10.37,2013-08-15 00:35:00,
2013-08-14 19:39:00,69.4,37.5,29.26,East,90,0.0,0.0,31,0.00,CLR,,0.00,WeatherDisplay:10.37,2013-08-15 00:39:00,
2013-08-14 19:40:00,69.4,38.3,29.26,East,90,0.0,0.0,32,0.00,CLR,,0.00,WeatherDisplay:10.37,2013-08-15 00:40:00,
2013-08-14 19:41:00,69.4,37.5,29.26,East,90,1.4,0.0,31,0.00,CLR,,0.00,WeatherDisplay:10.37,2013-08-15 00:41:00,
2013-08-14 19:42:00,69.4,37.5,29.26,East,90,2.0,2.0,31,0.00,CLR,,0.00,WeatherDisplay:10.37,2013-08-15 00:42:00,
2013-08-14 19:45:00,69.3,38.1,29.26,East,90,2.3,2.3,32,0.00,CLR,,0.00,WeatherDisplay:10.37,2013-08-15 00:45:00,
2013-08-14 19:47:00,69.3,38.1,29.26,East,90,0.0,0.0,32,0.00,CLR,,0.00,WeatherDisplay:10.37,2013-08-15 00:47:00,
2013-08-14 19:48:00,69.3,38.1,29.26,East,90,0.0,0.0,32,0.00,CLR,,0.00,WeatherDisplay:10.37,2013-08-15 00:48:00,
2013-08-14 19:52:00,69.3,38.1,29.26,East,90,0.0,0.0,32,0.00,CLR,,0.00,WeatherDisplay:10.37,2013-08-15 00:52:00,
2013-08-14 19:53:00,68.4,38.1,29.26,East,90,0.0,0.0,33,0.00,CLR,,0.00,WeatherDisplay:10.37,2013-08-15 00:53:00,
2013-08-14 19:54:00,68.4,38.1,29.26,East,90,0.0,0.0,33,0.00,CLR,,0.00,WeatherDisplay:10.37,2013-08-15 00:54:00,
2013-08-14 19:55:00,68.2,38.0,29.26,East,90,0.0,0.0,33,0.00,CLR,,0.00,WeatherDisplay:10.37,2013-08-15 00:55:00,
2013-08-14 19:59:00,67.9,37.7,29.24,East,90,0.0,0.0,33,0.00,CLR,,0.00,WeatherDisplay:10.37,2013-08-15 00:59:00,
2013-08-14 20:00:00,67.8,38.4,29.24,East,90,0.0,0.0,34,0.00,CLR,,0.00,WeatherDisplay:10.37,2013-08-15 01:00:00,
2013-08-14 20:01:00,67.8,38.4,29.24,East,90,0.0,0.0,34,0.00,CLR,,0.00,WeatherDisplay:10.37,2013-08-15 01:01:00,
2013-08-14 20:05:00,67.5,38.1,29.24,East,90,0.0,0.0,34,0.00,CLR,,0.00,WeatherDisplay:10.37,2013-08-15 01:05:00,
2013-08-14 20:06:00,67.3,37.9,29.24,East,90,0.0,0.0,34,0.00,CLR,,0.00,WeatherDisplay:10.37,2013-08-15 01:06:00,
2013-08-14 20:07:00,67.3,37.9,29.24,East,90,0.0,0.0,34,0.00,CLR,,0.00,WeatherDisplay:10.37,2013-08-15 01:07:00,
2013-08-14 20:08:00,67.3,37.9,29.24,East,90,0.0,0.0,34,0.00,CLR,,0.00,WeatherDisplay:10.37,2013-08-15 01:08:00,
2013-08-14 20:11:00,67.1,37.8,29.24,East,90,0.0,0.0,34,0.00,CLR,,0.00,WeatherDisplay:10.37,2013-08-15 01:11:00,
2013-08-14 20:12:00,66.9,38.4,29.26,East,90,1.4,0.0,35,0.00,CLR,,0.00,WeatherDisplay:10.37,2013-08-15 01:12:00,
2013-08-14 20:13:00,66.9,38.4,29.26,ENE,68,1.4,1.4,35,0.00,CLR,,0.00,WeatherDisplay:10.37,2013-08-15 01:13:00,
2013-08-14 20:14:00,66.7,38.9,29.26,ENE,68,1.4,1.4,36,0.00,CLR,,0.00,WeatherDisplay:10.37,2013-08-15 01:14:00,
2013-08-14 20:16:00,66.6,38.8,29.26,ENE,68,0.0,0.0,36,0.00,CLR,,0.00,WeatherDisplay:10.37,2013-08-15 01:16:00,
2013-08-14 20:18:00,66.4,37.9,29.26,ENE,68,0.0,0.0,35,0.00,CLR,,0.00,WeatherDisplay:10.37,2013-08-15 01:18:00,
2013-08-14 20:19:00,66.4,37.9,29.26,ENE,68,0.0,0.0,35,0.00,CLR,,0.00,WeatherDisplay:10.37,2013-08-15 01:19:00,
2013-08-14 20:20:00,66.2,37.7,29.26,ENE,68,0.0,0.0,35,0.00,CLR,,0.00,WeatherDisplay:10.37,2013-08-15 01:20:00,
2013-08-14 20:23:00,66.0,38.3,29.26,ENE,68,0.0,0.0,36,0.00,CLR,,0.00,WeatherDisplay:10.37,2013-08-15 01:23:00,
2013-08-14 20:24:00,66.0,38.3,29.26,ENE,68,0.0,0.0,36,0.00,CLR,,0.00,WeatherDisplay:10.37,2013-08-15 01:24:00,
2013-08-14 20:26:00,66.0,38.3,29.26,ENE,68,0.0,0.0,36,0.00,CLR,,0.00,WeatherDisplay:10.37,2013-08-15 01:26:00,
2013-08-14 20:27:00,65.8,38.1,29.26,ENE,68,0.0,0.0,36,0.00,CLR,,0.00,WeatherDisplay:10.37,2013-08-15 01:27:00,
2013-08-14 20:30:00,65.8,38.1,29.26,ENE,68,0.0,0.0,36,0.00,CLR,,0.00,WeatherDisplay:10.37,2013-08-15 01:30:00,
2013-08-14 20:31:00,65.8,38.1,29.26,ENE,68,0.0,0.0,36,0.00,CLR,,0.00,WeatherDisplay:10.37,2013-08-15 01:31:00,
2013-08-14 20:32:00,65.8,38.1,29.26,ENE,68,0.0,0.0,36,0.00,CLR,,0.00,WeatherDisplay:10.37,2013-08-15 01:32:00,
2013-08-14 20:33:00,65.8,38.1,29.26,ENE,68,0.0,0.0,36,0.00,CLR,,0.00,WeatherDisplay:10.37,2013-08-15 01:33:00,
2013-08-14 20:37:00,65.8,38.1,29.26,ENE,68,0.0,0.0,36,0.00,CLR,,0.00,WeatherDisplay:10.37,2013-08-15 01:37:00,
2013-08-14 20:39:00,65.8,38.1,29.26,ENE,68,0.0,0.0,36,0.00,CLR,,0.00,WeatherDisplay:10.37,2013-08-15 01:39:00,
2013-08-14 20:40:00,65.8,38.1,29.26,ENE,68,0.0,0.0,36,0.00,CLR,,0.00,WeatherDisplay:10.37,2013-08-15 01:40:00,
2013-08-14 20:41:00,65.8,38.1,29.26,ENE,68,0.0,0.0,36,0.00,CLR,,0.00,WeatherDisplay:10.37,2013-08-15 01:41:00,
2013-08-14 20:44:00,65.8,38.1,29.26,ENE,68,0.0,0.0,36,0.00,CLR,,0.00,WeatherDisplay:10.37,2013-08-15 01:44:00,
2013-08-14 20:45:00,65.8,38.1,29.26,ENE,68,0.0,0.0,36,0.00,CLR,,0.00,WeatherDisplay:10.37,2013-08-15 01:45:00,
2013-08-14 20:47:00,65.8,38.1,29.26,ENE,68,0.0,0.0,36,0.00,CLR,,0.00,WeatherDisplay:10.37,2013-08-15 01:47:00,
2013-08-14 20:48:00,65.8,38.1,29.26,ENE,68,0.0,0.0,36,0.00,CLR,,0.00,WeatherDisplay:10.37,2013-08-15 01:48:00,
2013-08-14 20:49:00,65.8,38.1,29.26,ENE,68,0.0,0.0,36,0.00,CLR,,0.00,WeatherDisplay:10.37,2013-08-15 01:49:00,
2013-08-14 20:51:00,65.8,38.1,29.26,ENE,68,0.0,0.0,36,0.00,CLR,,0.00,WeatherDisplay:10.37,2013-08-15 01:51:00,
2013-08-14 20:52:00,65.8,38.1,29.26,ENE,68,0.0,0.0,36,0.00,CLR,,0.00,WeatherDisplay:10.37,2013-08-15 01:52:00,
2013-08-14 20:53:00,65.8,38.1,29.26,ENE,68,0.0,0.0,36,0.00,CLR,,0.00,WeatherDisplay:10.37,2013-08-15 01:53:00,
2013-08-14 20:54:00,65.8,38.1,29.26,ENE,68,0.0,0.0,36,0.00,CLR,,0.00,WeatherDisplay:10.37,2013-08-15 01:54:00,
2013-08-14 20:56:00,64.6,37.7,29.26,ENE,68,0.0,0.0,37,0.00,CLR,,0.00,WeatherDisplay:10.37,2013-08-15 01:56:00,
2013-08-14 20:57:00,64.6,37.7,29.26,ENE,68,0.0,0.0,37,0.00,CLR,,0.00,WeatherDisplay:10.37,2013-08-15 01:57:00,
2013-08-14 21:00:00,64.4,36.8,29.26,ENE,68,0.0,0.0,36,0.00,CLR,,0.00,WeatherDisplay:10.37,2013-08-15 02:00:00,
2013-08-14 21:02:00,64.2,37.4,29.26,ENE,68,0.0,0.0,37,0.00,CLR,,0.00,WeatherDisplay:10.37,2013-08-15 02:02:00,
2013-08-14 21:03:00,64.2,37.4,29.26,ENE,68,2.3,2.3,37,0.00,CLR,,0.00,WeatherDisplay:10.37,2013-08-15 02:03:00,
2013-08-14 21:04:00,64.2,37.3,29.26,ENE,68,1.0,0.0,37,0.00,CLR,,0.00,WeatherDisplay:10.37,2013-08-15 02:04:00,
2013-08-14 21:05:00,64.0,37.2,29.26,ENE,68,1.1,1.1,37,0.00,CLR,,0.00,WeatherDisplay:10.37,2013-08-15 02:05:00,
2013-08-14 21:06:00,64.0,37.2,29.26,ENE,68,1.4,1.4,37,0.00,CLR,,0.00,WeatherDisplay:10.37,2013-08-15 02:06:00,
2013-08-14 21:07:00,64.0,37.2,29.26,ESE,112,1.1,1.1,37,0.00,CLR,,0.00,WeatherDisplay:10.37,2013-08-15 02:07:00,
2013-08-14 21:09:00,63.9,37.7,29.26,ESE,112,1.4,1.4,38,0.00,CLR,,0.00,WeatherDisplay:10.37,2013-08-15 02:09:00,
2013-08-14 21:10:00,63.9,37.7,29.26,ESE,112,2.3,2.3,38,0.00,CLR,,0.00,WeatherDisplay:10.37,2013-08-15 02:10:00,
2013-08-14 21:12:00,63.9,37.7,29.26,SSE,158,2.3,2.3,38,0.00,CLR,,0.00,WeatherDisplay:10.37,2013-08-15 02:12:00,
2013-08-14 21:14:00,63.7,37.6,29.26,SSE,158,2.3,2.3,38,0.00,CLR,,0.00,WeatherDisplay:10.37,2013-08-15 02:14:00,
2013-08-14 21:15:00,63.7,37.6,29.26,SSE,158,1.1,1.1,38,0.00,CLR,,0.00,WeatherDisplay:10.37,2013-08-15 02:15:00,
2013-08-14 21:16:00,63.7,37.6,29.26,SSE,158,1.1,1.1,38,0.00,CLR,,0.00,WeatherDisplay:10.37,2013-08-15 02:16:00,
2013-08-14 21:18:00,63.7,37.6,29.26,SSE,158,1.1,0.0,38,0.00,CLR,,0.00,WeatherDisplay:10.37,2013-08-15 02:18:00,
2013-08-14 21:19:00,63.7,37.6,29.26,SSE,158,1.1,0.0,38,0.00,CLR,,0.00,WeatherDisplay:10.37,2013-08-15 02:19:00,
2013-08-14 21:20:00,63.5,37.4,29.26,SSE,158,0.0,0.0,38,0.00,CLR,,0.00,WeatherDisplay:10.37,2013-08-15 02:20:00,
2013-08-14 21:23:00,63.5,37.4,29.26,SSE,158,0.0,0.0,38,0.00,CLR,,0.00,WeatherDisplay:10.37,2013-08-15 02:23:00,
2013-08-14 21:24:00,63.5,37.4,29.26,SSE,158,0.0,0.0,38,0.00,CLR,,0.00,WeatherDisplay:10.37,2013-08-15 02:24:00,
2013-08-14 21:26:00,63.5,37.4,29.26,SSE,158,0.0,0.0,38,0.00,CLR,,0.00,WeatherDisplay:10.37,2013-08-15 02:26:00,
2013-08-14 21:28:00,63.3,37.3,29.26,SSE,158,0.0,0.0,38,0.00,CLR,,0.00,WeatherDisplay:10.37,2013-08-15 02:28:00,
2013-08-14 21:29:00,63.3,37.3,29.26,SSE,158,0.0,0.0,38,0.00,CLR,,0.00,WeatherDisplay:10.37,2013-08-15 02:29:00,
2013-08-14 21:30:00,63.3,37.3,29.26,SSE,158,0.0,0.0,38,0.00,CLR,,0.00,WeatherDisplay:10.37,2013-08-15 02:30:00,
2013-08-14 21:33:00,63.1,37.1,29.26,SSE,158,0.0,0.0,38,0.00,CLR,,0.00,WeatherDisplay:10.37,2013-08-15 02:33:00,
2013-08-14 21:34:00,63.1,37.1,29.26,SSE,158,0.0,0.0,38,0.00,CLR,,0.00,WeatherDisplay:10.37,2013-08-15 02:34:00,
2013-08-14 21:35:00,63.1,37.1,29.26,SSE,158,0.0,0.0,38,0.00,CLR,,0.00,WeatherDisplay:10.37,2013-08-15 02:35:00,
2013-08-14 21:36:00,63.1,37.1,29.26,SSE,158,0.0,0.0,38,0.00,CLR,,0.00,WeatherDisplay:10.37,2013-08-15 02:36:00,
2013-08-14 21:38:00,63.1,37.1,29.26,SSE,158,0.0,0.0,38,0.00,CLR,,0.00,WeatherDisplay:10.37,2013-08-15 02:38:00,
2013-08-14 21:39:00,63.0,36.9,29.26,SSE,158,0.0,0.0,38,0.00,CLR,,0.00,WeatherDisplay:10.37,2013-08-15 02:39:00,
2013-08-14 21:41:00,63.0,36.9,29.26,SSE,158,0.0,0.0,38,0.00,CLR,,0.00,WeatherDisplay:10.37,2013-08-15 02:41:00,
2013-08-14 21:42:00,63.0,36.9,29.26,SSE,158,0.0,0.0,38,0.00,CLR,,0.00,WeatherDisplay:10.37,2013-08-15 02:42:00,
2013-08-14 21:44:00,63.0,36.9,29.26,SSE,158,0.0,0.0,38,0.00,CLR,,0.00,WeatherDisplay:10.37,2013-08-15 02:44:00,
2013-08-14 21:45:00,63.0,36.9,29.26,SSE,158,0.0,0.0,38,0.00,CLR,,0.00,WeatherDisplay:10.37,2013-08-15 02:45:00,
2013-08-14 21:46:00,62.8,36.8,29.26,SSE,158,0.0,0.0,38,0.00,CLR,,0.00,WeatherDisplay:10.37,2013-08-15 02:46:00,
2013-08-14 21:47:00,62.8,36.8,29.26,SSE,158,0.0,0.0,38,0.00,CLR,,0.00,WeatherDisplay:10.37,2013-08-15 02:47:00,
2013-08-14 21:48:00,62.8,36.8,29.26,SSE,158,0.0,0.0,38,0.00,CLR,,0.00,WeatherDisplay:10.37,2013-08-15 02:48:00,
2013-08-14 21:51:00,62.6,36.6,29.26,SSE,158,0.0,0.0,38,0.00,CLR,,0.00,WeatherDisplay:10.37,2013-08-15 02:51:00,
2013-08-14 21:52:00,62.6,36.6,29.26,SSE,158,0.0,0.0,38,0.00,CLR,,0.00,WeatherDisplay:10.37,2013-08-15 02:52:00,
2013-08-14 21:54:00,62.6,36.6,29.26,SSE,158,0.0,0.0,38,0.00,CLR,,0.00,WeatherDisplay:10.37,2013-08-15 02:54:00,
2013-08-14 21:56:00,62.4,37.1,29.26,SSE,158,0.0,0.0,39,0.00,CLR,,0.00,WeatherDisplay:10.37,2013-08-15 02:56:00,
2013-08-14 21:59:00,62.2,37.0,29.29,SSE,158,0.0,0.0,39,0.00,CLR,,0.00,WeatherDisplay:10.37,2013-08-15 02:59:00,
2013-08-14 22:02:00,62.2,37.0,29.29,SSE,158,0.0,0.0,39,0.00,CLR,,0.00,WeatherDisplay:10.37,2013-08-15 03:02:00,
2013-08-14 22:03:00,62.2,37.0,29.29,SSE,158,0.0,0.0,39,0.00,CLR,,0.00,WeatherDisplay:10.37,2013-08-15 03:03:00,
2013-08-14 22:04:00,62.1,36.8,29.29,SSE,158,0.0,0.0,39,0.00,CLR,,0.00,WeatherDisplay:10.37,2013-08-15 03:04:00,
2013-08-14 22:08:00,62.1,37.4,29.29,SSE,158,0.0,0.0,40,0.00,CLR,,0.00,WeatherDisplay:10.37,2013-08-15 03:08:00,
2013-08-14 22:09:00,61.9,37.3,29.29,SSE,158,0.0,0.0,40,0.00,CLR,,0.00,WeatherDisplay:10.37,2013-08-15 03:09:00,
2013-08-14 22:10:00,61.9,37.3,29.29,SSE,158,0.0,0.0,40,0.00,CLR,,0.00,WeatherDisplay:10.37,2013-08-15 03:10:00,
2013-08-14 22:11:00,61.9,37.3,29.29,SSE,158,0.0,0.0,40,0.00,CLR,,0.00,WeatherDisplay:10.37,2013-08-15 03:11:00,
2013-08-14 22:13:00,61.9,37.9,29.26,SSE,158,0.0,0.0,41,0.00,CLR,,0.00,WeatherDisplay:10.37,2013-08-15 03:13:00,
2013-08-14 22:15:00,61.7,37.7,29.26,SSE,158,1.1,1.1,41,0.00,CLR,,0.00,WeatherDisplay:10.37,2013-08-15 03:15:00,
2013-08-14 22:16:00,61.7,37.7,29.26,SSE,158,1.4,1.4,41,0.00,CLR,,0.00,WeatherDisplay:10.37,2013-08-15 03:16:00,
2013-08-14 22:18:00,61.7,37.7,29.26,SSE,158,1.1,1.1,41,0.00,CLR,,0.00,WeatherDisplay:10.37,2013-08-15 03:18:00,
2013-08-14 22:19:00,61.7,37.7,29.26,SSE,158,1.1,0.0,41,0.00,CLR,,0.00,WeatherDisplay:10.37,2013-08-15 03:19:00,
2013-08-14 22:21:00,61.5,37.6,29.26,SSE,158,1.1,1.1,41,0.00,CLR,,0.00,WeatherDisplay:10.37,2013-08-15 03:21:00,
2013-08-14 22:22:00,61.5,37.6,29.26,SSE,158,1.1,1.1,41,0.00,CLR,,0.00,WeatherDisplay:10.37,2013-08-15 03:22:00,
2013-08-14 22:24:00,61.5,37.6,29.26,SSE,158,1.1,1.1,41,0.00,CLR,,0.00,WeatherDisplay:10.37,2013-08-15 03:24:00,
2013-08-14 22:25:00,61.5,37.6,29.26,SSE,158,1.6,1.6,41,0.00,CLR,,0.00,WeatherDisplay:10.37,2013-08-15 03:25:00,
2013-08-14 22:27:00,61.3,38.0,29.26,SSE,158,1.1,1.1,42,0.00,CLR,,0.00,WeatherDisplay:10.37,2013-08-15 03:27:00,
2013-08-14 22:29:00,61.3,38.0,29.26,SSE,158,1.1,0.0,42,0.00,CLR,,0.00,WeatherDisplay:10.37,2013-08-15 03:29:00,
2013-08-14 22:30:00,61.3,38.0,29.26,SSE,158,0.0,0.0,42,0.00,CLR,,0.00,WeatherDisplay:10.37,2013-08-15 03:30:00,
2013-08-14 22:32:00,61.3,38.0,29.26,SSE,158,0.0,0.0,42,0.00,CLR,,0.00,WeatherDisplay:10.37,2013-08-15 03:32:00,
2013-08-14 22:34:00,61.2,38.5,29.26,SSE,158,0.0,0.0,43,0.00,CLR,,0.00,WeatherDisplay:10.37,2013-08-15 03:34:00,
2013-08-14 22:35:00,61.2,38.5,29.26,SSE,158,0.0,0.0,43,0.00,CLR,,0.00,WeatherDisplay:10.37,2013-08-15 03:35:00,
2013-08-14 22:36:00,61.2,38.5,29.26,SSE,158,1.4,0.0,43,0.00,CLR,,0.00,WeatherDisplay:10.37,2013-08-15 03:36:00,
2013-08-14 22:37:00,61.2,38.5,29.26,SSE,158,1.1,1.1,43,0.00,CLR,,0.00,WeatherDisplay:10.37,2013-08-15 03:37:00,
2013-08-14 22:39:00,61.2,38.5,29.26,SSE,158,1.1,1.1,43,0.00,CLR,,0.00,WeatherDisplay:10.37,2013-08-15 03:39:00,
2013-08-14 22:40:00,61.2,39.1,29.26,SSE,158,2.3,2.3,44,0.00,CLR,,0.00,WeatherDisplay:10.37,2013-08-15 03:40:00,
2013-08-14 22:41:00,61.2,39.1,29.26,SSE,158,2.3,2.3,44,0.00,CLR,,0.00,WeatherDisplay:10.37,2013-08-15 03:41:00,
2013-08-14 22:44:00,61.0,38.3,29.29,SSE,158,1.1,1.1,43,0.00,CLR,,0.00,WeatherDisplay:10.37,2013-08-15 03:44:00,
2013-08-14 22:45:00,61.0,38.9,29.29,SSE,158,1.1,0.0,44,0.00,CLR,,0.00,WeatherDisplay:10.37,2013-08-15 03:45:00,
2013-08-14 22:46:00,61.0,38.9,29.29,SSE,158,1.1,0.0,44,0.00,CLR,,0.00,WeatherDisplay:10.37,2013-08-15 03:46:00,
2013-08-14 22:49:00,61.0,38.9,29.29,SSE,158,0.0,0.0,44,0.00,CLR,,0.00,WeatherDisplay:10.37,2013-08-15 03:49:00,
2013-08-14 22:50:00,61.0,38.9,29.29,SSE,158,1.1,0.0,44,0.00,CLR,,0.00,WeatherDisplay:10.37,2013-08-15 03:50:00,
2013-08-14 22:51:00,61.0,38.9,29.29,SSE,158,1.1,1.1,44,0.00,CLR,,0.00,WeatherDisplay:10.37,2013-08-15 03:51:00,
2013-08-14 22:53:00,60.8,38.7,29.29,SSE,158,1.1,1.1,44,0.00,CLR,,0.00,WeatherDisplay:10.37,2013-08-15 03:53:00,
2013-08-14 22:54:00,60.8,38.7,29.29,SSE,158,2.3,2.3,44,0.00,CLR,,0.00,WeatherDisplay:10.37,2013-08-15 03:54:00,
2013-08-14 22:58:00,60.6,38.6,29.29,SE,135,1.6,1.6,44,0.00,CLR,,0.00,WeatherDisplay:10.37,2013-08-15 03:58:00,
2013-08-14 22:59:00,60.6,38.6,29.29,SSE,158,2.3,2.3,44,0.00,CLR,,0.00,WeatherDisplay:10.37,2013-08-15 03:59:00,
2013-08-14 23:01:00,60.6,39.1,29.29,SSE,158,2.3,2.3,45,0.00,CLR,,0.00,WeatherDisplay:10.37,2013-08-15 04:01:00,
2013-08-14 23:02:00,60.6,39.1,29.29,SSE,158,2.3,2.3,45,0.00,CLR,,0.00,WeatherDisplay:10.37,2013-08-15 04:02:00,
2013-08-14 23:03:00,60.6,39.1,29.29,SSE,158,2.3,2.3,45,0.00,CLR,,0.00,WeatherDisplay:10.37,2013-08-15 04:03:00,
2013-08-14 23:07:00,60.6,39.7,29.29,SSE,158,2.3,2.3,46,0.00,CLR,,0.00,WeatherDisplay:10.37,2013-08-15 04:07:00,
2013-08-14 23:08:00,60.6,39.1,29.29,SSE,158,2.3,2.3,45,0.00,CLR,,0.00,WeatherDisplay:10.37,2013-08-15 04:08:00,
2013-08-14 23:12:00,60.4,39.0,29.26,SSE,158,1.1,0.0,45,0.00,CLR,,0.00,WeatherDisplay:10.37,2013-08-15 04:12:00,
2013-08-14 23:13:00,60.4,39.5,29.26,SSE,158,0.0,0.0,46,0.00,CLR,,0.00,WeatherDisplay:10.37,2013-08-15 04:13:00,
2013-08-14 23:14:00,60.4,39.5,29.26,SSE,158,0.0,0.0,46,0.00,CLR,,0.00,WeatherDisplay:10.37,2013-08-15 04:14:00,
2013-08-14 23:15:00,60.4,39.0,29.26,SSE,158,1.1,1.1,45,0.00,CLR,,0.00,WeatherDisplay:10.37,2013-08-15 04:15:00,
2013-08-14 23:18:00,60.4,39.0,29.26,SSE,158,0.0,0.0,45,0.00,CLR,,0.00,WeatherDisplay:10.37,2013-08-15 04:18:00,
2013-08-14 23:20:00,60.4,39.0,29.26,SSE,158,0.0,0.0,45,0.00,CLR,,0.00,WeatherDisplay:10.37,2013-08-15 04:20:00,
2013-08-14 23:23:00,60.3,39.4,29.26,SSE,158,1.4,0.0,46,0.00,CLR,,0.00,WeatherDisplay:10.37,2013-08-15 04:23:00,
2013-08-14 23:24:00,60.3,39.4,29.26,SSE,158,2.2,2.2,46,0.00,CLR,,0.00,WeatherDisplay:10.37,2013-08-15 04:24:00,
2013-08-14 23:25:00,60.3,39.4,29.26,SSE,158,2.3,2.3,46,0.00,CLR,,0.00,WeatherDisplay:10.37,2013-08-15 04:25:00,
2013-08-14 23:26:00,60.3,39.4,29.26,South,180,1.4,1.4,46,0.00,CLR,,0.00,WeatherDisplay:10.37,2013-08-15 04:26:00,
2013-08-14 23:27:00,60.3,39.4,29.29,SSE,158,2.3,2.3,46,0.00,CLR,,0.00,WeatherDisplay:10.37,2013-08-15 04:27:00,
2013-08-14 23:29:00,60.1,39.2,29.29,SSE,158,2.3,2.3,46,0.00,CLR,,0.00,WeatherDisplay:10.37,2013-08-15 04:29:00,
2013-08-14 23:30:00,60.1,39.2,29.29,SSE,158,2.3,2.3,46,0.00,CLR,,0.00,WeatherDisplay:10.37,2013-08-15 04:30:00,
2013-08-14 23:31:00,60.1,39.2,29.29,SSE,158,2.3,2.3,46,0.00,CLR,,0.00,WeatherDisplay:10.37,2013-08-15 04:31:00,
2013-08-14 23:32:00,60.1,39.2,29.29,SSE,158,2.3,2.3,46,0.00,CLR,,0.00,WeatherDisplay:10.37,2013-08-15 04:32:00,
2013-08-14 23:36:00,60.1,39.2,29.29,SSE,158,1.1,1.1,46,0.00,CLR,,0.00,WeatherDisplay:10.37,2013-08-15 04:36:00,
2013-08-14 23:37:00,60.1,39.2,29.29,SSE,158,1.1,0.0,46,0.00,CLR,,0.00,WeatherDisplay:10.37,2013-08-15 04:37:00,
2013-08-14 23:38:00,60.1,39.2,29.29,SSE,158,0.0,0.0,46,0.00,CLR,,0.00,WeatherDisplay:10.37,2013-08-15 04:38:00,
2013-08-14 23:39:00,60.1,39.2,29.29,SSE,158,0.0,0.0,46,0.00,CLR,,0.00,WeatherDisplay:10.37,2013-08-15 04:39:00,
2013-08-14 23:42:00,59.9,39.1,29.29,SSE,158,0.0,0.0,46,0.00,CLR,,0.00,WeatherDisplay:10.37,2013-08-15 04:42:00,
2013-08-14 23:43:00,59.9,39.1,29.29,SSE,158,2.2,2.2,46,0.00,CLR,,0.00,WeatherDisplay:10.37,2013-08-15 04:43:00,
2013-08-14 23:44:00,59.9,39.1,29.29,SSE,158,2.3,2.3,46,0.00,CLR,,0.00,WeatherDisplay:10.37,2013-08-15 04:44:00,
2013-08-14 23:46:00,59.9,39.1,29.29,SSE,158,2.6,2.6,46,0.00,CLR,,0.00,WeatherDisplay:10.37,2013-08-15 04:46:00,
2013-08-14 23:49:00,59.9,39.1,29.29,SSE,158,2.3,2.3,46,0.00,CLR,,0.00,WeatherDisplay:10.37,2013-08-15 04:49:00,
2013-08-14 23:50:00,59.7,38.9,29.29,SSE,158,2.3,2.3,46,0.00,CLR,,0.00,WeatherDisplay:10.37,2013-08-15 04:50:00,
2013-08-14 23:52:00,59.7,38.9,29.29,SSE,158,1.1,0.0,46,0.00,CLR,,0.00,WeatherDisplay:10.37,2013-08-15 04:52:00,
2013-08-14 23:53:00,59.7,38.9,29.29,SSE,158,0.0,0.0,46,0.00,CLR,,0.00,WeatherDisplay:10.37,2013-08-15 04:53:00,
2013-08-14 23:56:00,59.7,38.9,29.29,SSE,158,2.3,2.3,46,0.00,CLR,,0.00,WeatherDisplay:10.37,2013-08-15 04:56:00,
2013-08-14 23:57:00,59.7,38.9,29.29,SSE,158,1.6,1.6,46,0.00,CLR,,0.00,WeatherDisplay:10.37,2013-08-15 04:57:00,
2013-08-14 23:58:00,59.7,38.9,29.29,SSE,158,1.4,1.4,46,0.00,CLR,,0.00,WeatherDisplay:10.37,2013-08-15 04:58:00,
2013-08-14 23:59:00,59.7,38.9,29.29,SSE,158,1.0,0.0,46,0.00,CLR,,0.00,WeatherDisplay:10.37,2013-08-15 04:59:00,